Time,TemperatureF,DewpointF,PressureIn,WindDirection,WindDirectionDegrees,WindSpeedMPH,WindSpeedGustMPH,Humidity,HourlyPrecipIn,Conditions,Clouds,dailyrainin,SolarRadiationWatts/m^2,SoftwareType,DateUTC
2013-04-20 00:03:00,35.1,30.2,30.08,NNW,327,0.0,0.0,82,0.00,CLR,,0.00,0.0,WeatherDisplay:10.37,2013-04-20 05:03:00,
2013-04-20 00:05:00,35.0,30.4,30.08,NNW,327,0.0,0.0,83,0.00,CLR,,0.00,0.0,WeatherDisplay:10.37,2013-04-20 05:05:00,
2013-04-20 00:08:00,35.0,30.1,30.08,NNW,327,0.0,0.0,82,0.00,CLR,,0.00,0.0,WeatherDisplay:10.37,2013-04-20 05:08:00,
2013-04-20 00:09:00,35.0,30.1,30.08,NNW,327,0.0,0.0,82,0.00,CLR,,0.00,0.0,WeatherDisplay:10.37,2013-04-20 05:09:00,
2013-04-20 00:10:00,35.0,30.1,30.08,NNW,327,0.0,0.0,82,0.00,CLR,,0.00,0.0,WeatherDisplay:10.37,2013-04-20 05:10:00,
2013-04-20 00:13:00,34.7,30.1,30.09,NNW,327,0.0,0.0,83,0.00,CLR,,0.00,0.0,WeatherDisplay:10.37,2013-04-20 05:13:00,
2013-04-20 00:14:00,34.6,30.0,30.09,NNW,327,0.0,0.0,83,0.00,CLR,,0.00,0.0,WeatherDisplay:10.37,2013-04-20 05:14:00,
2013-04-20 00:15:00,34.5,29.9,30.08,NNW,327,0.0,0.0,83,0.00,CLR,,0.00,0.0,WeatherDisplay:10.37,2013-04-20 05:15:00,
2013-04-20 00:18:00,34.6,30.0,30.09,NNW,327,0.0,0.0,83,0.00,CLR,,0.00,0.0,WeatherDisplay:10.37,2013-04-20 05:18:00,
2013-04-20 00:19:00,34.7,30.1,30.09,NNW,327,0.0,0.0,83,0.00,CLR,,0.00,0.0,WeatherDisplay:10.37,2013-04-20 05:19:00,
2013-04-20 00:21:00,34.7,29.8,30.09,NNW,327,0.0,0.0,82,0.00,CLR,,0.00,0.0,WeatherDisplay:10.37,2013-04-20 05:21:00,
2013-04-20 00:23:00,34.6,29.7,30.09,NNW,327,0.0,0.0,82,0.00,CLR,,0.00,0.0,WeatherDisplay:10.37,2013-04-20 05:23:00,
2013-04-20 00:24:00,34.6,29.7,30.09,NNW,327,0.0,0.0,82,0.00,CLR,,0.00,0.0,WeatherDisplay:10.37,2013-04-20 05:24:00,
2013-04-20 00:26:00,34.6,30.0,30.09,NNW,327,0.0,0.0,83,0.00,CLR,,0.00,0.0,WeatherDisplay:10.37,2013-04-20 05:26:00,
2013-04-20 00:28:00,34.7,30.1,30.09,NNW,327,0.0,0.0,83,0.00,CLR,,0.00,0.0,WeatherDisplay:10.37,2013-04-20 05:28:00,
2013-04-20 00:29:00,34.6,30.0,30.09,NNW,327,0.0,0.0,83,0.00,CLR,,0.00,0.0,WeatherDisplay:10.37,2013-04-20 05:29:00,
2013-04-20 00:30:00,34.6,30.0,30.09,NNW,327,0.0,0.0,83,0.00,CLR,,0.00,0.0,WeatherDisplay:10.37,2013-04-20 05:30:00,
2013-04-20 00:31:00,34.6,30.0,30.09,NNW,327,0.0,0.0,83,0.00,CLR,,0.00,0.0,WeatherDisplay:10.37,2013-04-20 05:31:00,
2013-04-20 00:34:00,34.5,30.2,30.09,NNW,327,0.0,0.0,84,0.00,CLR,,0.00,0.0,WeatherDisplay:10.37,2013-04-20 05:34:00,
2013-04-20 00:35:00,34.5,30.5,30.09,NNW,327,0.0,0.0,85,0.00,CLR,,0.00,0.0,WeatherDisplay:10.37,2013-04-20 05:35:00,
2013-04-20 00:37:00,34.4,30.6,30.09,NNW,327,0.0,0.0,86,0.00,CLR,,0.00,0.0,WeatherDisplay:10.37,2013-04-20 05:37:00,
2013-04-20 00:39:00,34.4,30.6,30.09,NNW,327,0.0,0.0,86,0.00,CLR,,0.00,0.0,WeatherDisplay:10.37,2013-04-20 05:39:00,
2013-04-20 00:40:00,34.4,30.4,30.09,NNW,327,0.0,0.0,85,0.00,CLR,,0.00,0.0,WeatherDisplay:10.37,2013-04-20 05:40:00,
2013-04-20 00:42:00,34.3,30.3,30.09,NNW,327,0.0,0.0,85,0.00,CLR,,0.00,0.0,WeatherDisplay:10.37,2013-04-20 05:42:00,
2013-04-20 00:44:00,34.4,30.4,30.10,NNW,327,0.0,0.0,85,0.00,CLR,,0.00,0.0,WeatherDisplay:10.37,2013-04-20 05:44:00,
2013-04-20 00:45:00,34.4,30.4,30.10,NNW,327,0.0,0.0,85,0.00,CLR,,0.00,0.0,WeatherDisplay:10.37,2013-04-20 05:45:00,
2013-04-20 00:47:00,34.4,30.1,30.10,NNW,327,0.0,0.0,84,0.00,CLR,,0.00,0.0,WeatherDisplay:10.37,2013-04-20 05:47:00,
2013-04-20 00:49:00,34.5,30.7,30.10,NNW,327,0.0,0.0,86,0.00,CLR,,0.00,0.0,WeatherDisplay:10.37,2013-04-20 05:49:00,
2013-04-20 00:50:00,34.5,30.5,30.10,NNW,327,0.0,0.0,85,0.00,CLR,,0.00,0.0,WeatherDisplay:10.37,2013-04-20 05:50:00,
2013-04-20 00:52:00,34.4,30.4,30.10,NNW,327,0.0,0.0,85,0.00,CLR,,0.00,0.0,WeatherDisplay:10.37,2013-04-20 05:52:00,
2013-04-20 00:54:00,34.3,30.3,30.10,NNW,327,0.0,0.0,85,0.00,CLR,,0.00,0.0,WeatherDisplay:10.37,2013-04-20 05:54:00,
2013-04-20 00:55:00,34.3,30.3,30.10,NNW,327,0.0,0.0,85,0.00,CLR,,0.00,0.0,WeatherDisplay:10.37,2013-04-20 05:55:00,
2013-04-20 00:57:00,34.1,30.1,30.10,NNW,327,0.0,0.0,85,0.00,CLR,,0.00,0.0,WeatherDisplay:10.37,2013-04-20 05:57:00,
2013-04-20 00:59:00,34.0,30.0,30.10,NNW,327,0.0,0.0,85,0.00,CLR,,0.00,0.0,WeatherDisplay:10.37,2013-04-20 05:59:00,
2013-04-20 01:00:00,34.0,30.0,30.10,NNW,327,0.0,0.0,85,0.00,CLR,,0.00,0.0,WeatherDisplay:10.37,2013-04-20 06:00:00,
2013-04-20 01:03:00,34.1,29.8,30.10,NNW,327,0.0,0.0,84,0.00,CLR,,0.00,0.0,WeatherDisplay:10.37,2013-04-20 06:03:00,
2013-04-20 01:05:00,34.0,30.0,30.10,NNW,327,0.0,0.0,85,0.00,CLR,,0.00,0.0,WeatherDisplay:10.37,2013-04-20 06:05:00,
2013-04-20 01:06:00,33.9,29.9,30.10,NNW,327,0.0,0.0,85,0.00,CLR,,0.00,0.0,WeatherDisplay:10.37,2013-04-20 06:06:00,
2013-04-20 01:08:00,33.7,29.7,30.10,NNW,327,0.0,0.0,85,0.00,CLR,,0.00,0.0,WeatherDisplay:10.37,2013-04-20 06:08:00,
2013-04-20 01:10:00,33.6,29.6,30.10,NNW,327,0.0,0.0,85,0.00,CLR,,0.00,0.0,WeatherDisplay:10.37,2013-04-20 06:10:00,
2013-04-20 01:11:00,33.6,29.6,30.10,NNW,327,0.0,0.0,85,0.00,CLR,,0.00,0.0,WeatherDisplay:10.37,2013-04-20 06:11:00,
2013-04-20 01:13:00,33.4,29.7,30.10,NNW,327,0.0,0.0,86,0.00,CLR,,0.00,0.0,WeatherDisplay:10.37,2013-04-20 06:13:00,
2013-04-20 01:15:00,33.2,29.5,30.10,NNW,327,0.0,0.0,86,0.00,CLR,,0.00,0.0,WeatherDisplay:10.37,2013-04-20 06:15:00,
2013-04-20 01:16:00,33.2,29.5,30.10,NNW,327,0.0,0.0,86,0.00,CLR,,0.00,0.0,WeatherDisplay:10.37,2013-04-20 06:16:00,
2013-04-20 01:17:00,33.2,29.5,30.10,NNW,327,0.0,0.0,86,0.00,CLR,,0.00,0.0,WeatherDisplay:10.37,2013-04-20 06:17:00,
2013-04-20 01:18:00,33.2,29.5,30.11,NNW,327,0.0,0.0,86,0.00,CLR,,0.00,0.0,WeatherDisplay:10.37,2013-04-20 06:18:00,
2013-04-20 01:20:00,33.1,29.7,30.11,NNW,327,0.0,0.0,87,0.00,CLR,,0.00,0.0,WeatherDisplay:10.37,2013-04-20 06:20:00,
2013-04-20 01:21:00,33.1,29.7,30.11,NNW,327,0.0,0.0,87,0.00,CLR,,0.00,0.0,WeatherDisplay:10.37,2013-04-20 06:21:00,
2013-04-20 01:22:00,33.1,29.7,30.11,NNW,327,0.0,0.0,87,0.00,CLR,,0.00,0.0,WeatherDisplay:10.37,2013-04-20 06:22:00,
2013-04-20 01:24:00,33.1,29.9,30.11,NNW,327,0.0,0.0,88,0.00,CLR,,0.00,0.0,WeatherDisplay:10.37,2013-04-20 06:24:00,
2013-04-20 01:25:00,33.2,30.0,30.11,NNW,327,0.0,0.0,88,0.00,CLR,,0.00,0.0,WeatherDisplay:10.37,2013-04-20 06:25:00,
2013-04-20 01:26:00,33.2,30.0,30.11,NNW,327,0.0,0.0,88,0.00,CLR,,0.00,0.0,WeatherDisplay:10.37,2013-04-20 06:26:00,
2013-04-20 01:27:00,33.2,29.8,30.11,NNW,327,0.0,0.0,87,0.00,CLR,,0.00,0.0,WeatherDisplay:10.37,2013-04-20 06:27:00,
2013-04-20 01:29:00,33.2,29.8,30.11,NNW,327,0.0,0.0,87,0.00,CLR,,0.00,0.0,WeatherDisplay:10.37,2013-04-20 06:29:00,
2013-04-20 01:31:00,33.2,29.8,30.11,NNW,327,0.0,0.0,87,0.00,CLR,,0.00,0.0,WeatherDisplay:10.37,2013-04-20 06:31:00,
2013-04-20 01:32:00,33.2,29.8,30.11,NNW,327,0.0,0.0,87,0.00,CLR,,0.00,0.0,WeatherDisplay:10.37,2013-04-20 06:32:00,
2013-04-20 01:34:00,33.2,29.8,30.11,NNW,327,0.0,0.0,87,0.00,CLR,,0.00,0.0,WeatherDisplay:10.37,2013-04-20 06:34:00,
2013-04-20 01:36:00,33.0,29.6,30.11,NNW,327,0.0,0.0,87,0.00,CLR,,0.00,0.0,WeatherDisplay:10.37,2013-04-20 06:36:00,
2013-04-20 01:37:00,33.0,29.6,30.11,NNW,327,0.0,0.0,87,0.00,CLR,,0.00,0.0,WeatherDisplay:10.37,2013-04-20 06:37:00,
2013-04-20 01:39:00,32.9,29.7,30.11,NNW,327,0.0,0.0,88,0.00,CLR,,0.00,0.0,WeatherDisplay:10.37,2013-04-20 06:39:00,
2013-04-20 01:41:00,32.8,29.6,30.11,NNW,327,0.0,0.0,88,0.00,CLR,,0.00,0.0,WeatherDisplay:10.37,2013-04-20 06:41:00,
2013-04-20 01:42:00,32.7,29.5,30.11,NNW,327,0.0,0.0,88,0.00,CLR,,0.00,0.0,WeatherDisplay:10.37,2013-04-20 06:42:00,
2013-04-20 01:44:00,32.5,29.3,30.11,NNW,327,0.0,0.0,88,0.00,CLR,,0.00,0.0,WeatherDisplay:10.37,2013-04-20 06:44:00,
2013-04-20 01:46:00,32.6,29.7,30.11,NNW,327,0.0,0.0,89,0.00,CLR,,0.00,0.0,WeatherDisplay:10.37,2013-04-20 06:46:00,
2013-04-20 01:47:00,32.6,29.7,30.11,NNW,327,0.0,0.0,89,0.00,CLR,,0.00,0.0,WeatherDisplay:10.37,2013-04-20 06:47:00,
2013-04-20 01:48:00,32.5,29.3,30.11,NNW,327,0.0,0.0,88,0.00,CLR,,0.00,0.0,WeatherDisplay:10.37,2013-04-20 06:48:00,
2013-04-20 01:49:00,32.4,29.0,30.11,NNW,327,0.0,0.0,87,0.00,CLR,,0.00,0.0,WeatherDisplay:10.37,2013-04-20 06:49:00,
2013-04-20 01:52:00,32.1,28.9,30.11,NNW,327,0.0,0.0,88,0.00,CLR,,0.00,0.0,WeatherDisplay:10.37,2013-04-20 06:52:00,
2013-04-20 01:53:00,32.0,28.8,30.11,NNW,327,0.0,0.0,88,0.00,CLR,,0.00,0.0,WeatherDisplay:10.37,2013-04-20 06:53:00,
2013-04-20 01:54:00,32.0,28.8,30.11,NNW,327,0.0,0.0,88,0.00,CLR,,0.00,0.0,WeatherDisplay:10.37,2013-04-20 06:54:00,
2013-04-20 01:57:00,32.1,29.2,30.11,NNW,327,0.0,0.0,89,0.00,CLR,,0.00,0.0,WeatherDisplay:10.37,2013-04-20 06:57:00,
2013-04-20 01:58:00,32.1,29.2,30.11,NNW,327,0.0,0.0,89,0.00,CLR,,0.00,0.0,WeatherDisplay:10.37,2013-04-20 06:58:00,
2013-04-20 01:59:00,32.1,29.2,30.11,NNW,327,0.0,0.0,89,0.00,CLR,,0.00,0.0,WeatherDisplay:10.37,2013-04-20 06:59:00,
2013-04-20 02:02:00,32.1,28.9,30.11,NNW,327,0.0,0.0,88,0.00,CLR,,0.00,0.0,WeatherDisplay:10.37,2013-04-20 07:02:00,
2013-04-20 02:03:00,32.1,28.9,30.11,NNW,327,0.0,0.0,88,0.00,CLR,,0.00,0.0,WeatherDisplay:10.37,2013-04-20 07:03:00,
2013-04-20 02:04:00,32.1,28.9,30.11,NNW,327,0.0,0.0,88,0.00,CLR,,0.00,0.0,WeatherDisplay:10.37,2013-04-20 07:04:00,
2013-04-20 02:08:00,32.3,29.1,30.11,NNW,327,0.0,0.0,88,0.00,CLR,,0.00,0.0,WeatherDisplay:10.37,2013-04-20 07:08:00,
2013-04-20 02:09:00,32.4,29.2,30.12,NNW,327,0.0,0.0,88,0.00,CLR,,0.00,0.0,WeatherDisplay:10.37,2013-04-20 07:09:00,
2013-04-20 02:10:00,32.4,29.2,30.12,NNW,327,0.0,0.0,88,0.00,CLR,,0.00,0.0,WeatherDisplay:10.37,2013-04-20 07:10:00,
2013-04-20 02:13:00,32.4,29.5,30.12,NNW,327,0.0,0.0,89,0.00,CLR,,0.00,0.0,WeatherDisplay:10.37,2013-04-20 07:13:00,
2013-04-20 02:14:00,32.4,29.5,30.12,NNW,327,0.0,0.0,89,0.00,CLR,,0.00,0.0,WeatherDisplay:10.37,2013-04-20 07:14:00,
2013-04-20 02:15:00,32.4,29.2,30.11,NNW,327,0.0,0.0,88,0.00,CLR,,0.00,0.0,WeatherDisplay:10.37,2013-04-20 07:15:00,
2013-04-20 02:18:00,32.3,29.1,30.11,NNW,327,0.0,0.0,88,0.00,CLR,,0.00,0.0,WeatherDisplay:10.37,2013-04-20 07:18:00,
2013-04-20 02:19:00,32.3,29.1,30.11,NNW,327,0.0,0.0,88,0.00,CLR,,0.00,0.0,WeatherDisplay:10.37,2013-04-20 07:19:00,
2013-04-20 02:20:00,32.3,29.1,30.11,NNW,327,0.0,0.0,88,0.00,CLR,,0.00,0.0,WeatherDisplay:10.37,2013-04-20 07:20:00,
2013-04-20 02:23:00,32.1,28.9,30.12,NNW,327,0.0,0.0,88,0.00,CLR,,0.00,0.0,WeatherDisplay:10.37,2013-04-20 07:23:00,
2013-04-20 02:24:00,32.1,28.7,30.12,NNW,327,0.0,0.0,87,0.00,CLR,,0.00,0.0,WeatherDisplay:10.37,2013-04-20 07:24:00,
2013-04-20 02:25:00,32.1,28.7,30.12,NNW,327,0.0,0.0,87,0.00,CLR,,0.00,0.0,WeatherDisplay:10.37,2013-04-20 07:25:00,
2013-04-20 02:26:00,32.1,28.7,30.12,NNW,327,0.0,0.0,87,0.00,CLR,,0.00,0.0,WeatherDisplay:10.37,2013-04-20 07:26:00,
2013-04-20 02:29:00,32.1,28.7,30.12,NNW,327,0.0,0.0,87,0.00,CLR,,0.00,0.0,WeatherDisplay:10.37,2013-04-20 07:29:00,
2013-04-20 02:30:00,32.0,28.8,30.12,NNW,327,0.0,0.0,88,0.00,CLR,,0.00,0.0,WeatherDisplay:10.37,2013-04-20 07:30:00,
2013-04-20 02:31:00,32.1,28.7,30.12,NNW,327,0.0,0.0,87,0.00,CLR,,0.00,0.0,WeatherDisplay:10.37,2013-04-20 07:31:00,
2013-04-20 02:35:00,32.0,28.6,30.12,NNW,327,0.0,0.0,87,0.00,CLR,,0.00,0.0,WeatherDisplay:10.37,2013-04-20 07:35:00,
2013-04-20 02:36:00,32.0,28.6,30.12,NNW,327,0.0,0.0,87,0.00,CLR,,0.00,0.0,WeatherDisplay:10.37,2013-04-20 07:36:00,
2013-04-20 02:40:00,32.0,28.6,30.12,NNW,327,0.0,0.0,87,0.00,CLR,,0.00,0.0,WeatherDisplay:10.37,2013-04-20 07:40:00,
2013-04-20 02:41:00,32.0,28.6,30.12,NNW,327,0.0,0.0,87,0.00,CLR,,0.00,0.0,WeatherDisplay:10.37,2013-04-20 07:41:00,
2013-04-20 02:45:00,31.8,28.7,30.12,NNW,327,0.0,0.0,88,0.00,CLR,,0.00,0.0,WeatherDisplay:10.37,2013-04-20 07:45:00,
2013-04-20 02:46:00,31.7,28.6,30.12,NNW,327,0.0,0.0,88,0.00,CLR,,0.00,0.0,WeatherDisplay:10.37,2013-04-20 07:46:00,
2013-04-20 02:50:00,31.6,28.5,30.12,NNW,327,0.0,0.0,88,0.00,CLR,,0.00,0.0,WeatherDisplay:10.37,2013-04-20 07:50:00,
2013-04-20 02:51:00,31.5,28.4,30.12,NNW,327,0.0,0.0,88,0.00,CLR,,0.00,0.0,WeatherDisplay:10.37,2013-04-20 07:51:00,
2013-04-20 02:52:00,31.5,28.4,30.12,NNW,327,0.0,0.0,88,0.00,CLR,,0.00,0.0,WeatherDisplay:10.37,2013-04-20 07:52:00,
2013-04-20 02:55:00,31.2,28.1,30.11,NNW,327,0.0,0.0,88,0.00,CLR,,0.00,0.0,WeatherDisplay:10.37,2013-04-20 07:55:00,
2013-04-20 02:56:00,31.1,28.0,30.11,NNW,327,0.0,0.0,88,0.00,CLR,,0.00,0.0,WeatherDisplay:10.37,2013-04-20 07:56:00,
2013-04-20 02:58:00,31.0,27.9,30.11,NNW,327,0.0,0.0,88,0.00,CLR,,0.00,0.0,WeatherDisplay:10.37,2013-04-20 07:58:00,
2013-04-20 03:00:00,30.9,28.0,30.11,NNW,327,0.0,0.0,89,0.00,CLR,,0.00,0.0,WeatherDisplay:10.37,2013-04-20 08:00:00,
2013-04-20 03:01:00,30.8,27.9,30.11,NNW,327,0.0,0.0,89,0.00,CLR,,0.00,0.0,WeatherDisplay:10.37,2013-04-20 08:01:00,
2013-04-20 03:02:00,30.8,27.9,30.11,NNW,327,0.0,0.0,89,0.00,CLR,,0.00,0.0,WeatherDisplay:10.37,2013-04-20 08:02:00,
2013-04-20 03:03:00,30.7,27.8,30.11,NNW,327,0.0,0.0,89,0.00,CLR,,0.00,0.0,WeatherDisplay:10.37,2013-04-20 08:03:00,
2013-04-20 03:05:00,30.7,28.1,30.11,NNW,327,0.0,0.0,90,0.00,CLR,,0.00,0.0,WeatherDisplay:10.37,2013-04-20 08:05:00,
2013-04-20 03:06:00,30.6,28.0,30.11,NNW,327,0.0,0.0,90,0.00,CLR,,0.00,0.0,WeatherDisplay:10.37,2013-04-20 08:06:00,
2013-04-20 03:07:00,30.6,28.0,30.11,NNW,327,0.0,0.0,90,0.00,CLR,,0.00,0.0,WeatherDisplay:10.37,2013-04-20 08:07:00,
2013-04-20 03:08:00,30.5,27.9,30.11,NNW,327,0.0,0.0,90,0.00,CLR,,0.00,0.0,WeatherDisplay:10.37,2013-04-20 08:08:00,
2013-04-20 03:11:00,30.4,27.8,30.11,NNW,327,0.0,0.0,90,0.00,CLR,,0.00,0.0,WeatherDisplay:10.37,2013-04-20 08:11:00,
2013-04-20 03:12:00,30.3,27.7,30.11,NNW,327,0.0,0.0,90,0.00,CLR,,0.00,0.0,WeatherDisplay:10.37,2013-04-20 08:12:00,
2013-04-20 03:14:00,30.2,27.6,30.11,NNW,327,0.0,0.0,90,0.00,CLR,,0.00,0.0,WeatherDisplay:10.37,2013-04-20 08:14:00,
2013-04-20 03:16:00,30.1,27.5,30.11,NNW,327,0.0,0.0,90,0.00,CLR,,0.00,0.0,WeatherDisplay:10.37,2013-04-20 08:16:00,
2013-04-20 03:17:00,30.0,27.4,30.11,NNW,327,0.0,0.0,90,0.00,CLR,,0.00,0.0,WeatherDisplay:10.37,2013-04-20 08:17:00,
2013-04-20 03:19:00,30.0,27.4,30.11,NNW,327,0.0,0.0,90,0.00,CLR,,0.00,0.0,WeatherDisplay:10.37,2013-04-20 08:19:00,
2013-04-20 03:21:00,30.0,27.7,30.11,NNW,327,0.0,0.0,91,0.00,CLR,,0.00,0.0,WeatherDisplay:10.37,2013-04-20 08:21:00,
2013-04-20 03:22:00,29.9,27.3,30.11,NNW,327,0.0,0.0,90,0.00,CLR,,0.00,0.0,WeatherDisplay:10.37,2013-04-20 08:22:00,
2013-04-20 03:24:00,30.0,27.7,30.11,NNW,327,0.3,1.2,91,0.00,CLR,,0.00,0.0,WeatherDisplay:10.37,2013-04-20 08:24:00,
2013-04-20 03:26:00,30.1,27.8,30.11,NNW,327,0.1,1.2,91,0.00,CLR,,0.00,0.0,WeatherDisplay:10.37,2013-04-20 08:26:00,
2013-04-20 03:27:00,30.3,27.7,30.11,NNW,327,0.7,1.2,90,0.00,CLR,,0.00,0.0,WeatherDisplay:10.37,2013-04-20 08:27:00,
2013-04-20 03:28:00,30.4,27.8,30.11,NNW,327,0.5,1.2,90,0.00,CLR,,0.00,0.0,WeatherDisplay:10.37,2013-04-20 08:28:00,
2013-04-20 03:30:00,30.6,27.7,30.11,NNW,327,0.0,0.0,89,0.00,CLR,,0.00,0.0,WeatherDisplay:10.37,2013-04-20 08:30:00,
2013-04-20 03:31:00,30.7,27.8,30.11,NNW,327,0.0,0.0,89,0.00,CLR,,0.00,0.0,WeatherDisplay:10.37,2013-04-20 08:31:00,
2013-04-20 03:32:00,31.0,27.6,30.11,NNW,327,0.0,0.0,87,0.00,CLR,,0.00,0.0,WeatherDisplay:10.37,2013-04-20 08:32:00,
2013-04-20 03:33:00,31.0,27.6,30.11,NNW,327,0.0,0.0,87,0.00,CLR,,0.00,0.0,WeatherDisplay:10.37,2013-04-20 08:33:00,
2013-04-20 03:35:00,31.4,28.0,30.11,NNW,327,0.1,1.2,87,0.00,CLR,,0.00,0.0,WeatherDisplay:10.37,2013-04-20 08:35:00,
2013-04-20 03:36:00,31.6,28.2,30.12,NNW,327,0.0,0.0,87,0.00,CLR,,0.00,0.0,WeatherDisplay:10.37,2013-04-20 08:36:00,
2013-04-20 03:38:00,31.8,28.1,30.12,NNW,327,0.0,0.0,86,0.00,CLR,,0.00,0.0,WeatherDisplay:10.37,2013-04-20 08:38:00,
2013-04-20 03:40:00,32.0,28.3,30.12,NNW,327,0.0,0.0,86,0.00,CLR,,0.00,0.0,WeatherDisplay:10.37,2013-04-20 08:40:00,
2013-04-20 03:41:00,32.0,28.3,30.12,NNW,327,0.0,0.0,86,0.00,CLR,,0.00,0.0,WeatherDisplay:10.37,2013-04-20 08:41:00,
2013-04-20 03:43:00,31.8,28.4,30.12,NNW,327,0.0,0.0,87,0.00,CLR,,0.00,0.0,WeatherDisplay:10.37,2013-04-20 08:43:00,
2013-04-20 03:45:00,31.7,28.3,30.12,NNW,327,0.6,1.2,87,0.00,CLR,,0.00,0.0,WeatherDisplay:10.37,2013-04-20 08:45:00,
2013-04-20 03:47:00,31.7,28.0,30.12,NNW,327,1.6,2.3,86,0.00,CLR,,0.00,0.0,WeatherDisplay:10.37,2013-04-20 08:47:00,
2013-04-20 03:48:00,31.6,27.9,30.13,NNW,327,1.6,2.3,86,0.00,CLR,,0.00,0.0,WeatherDisplay:10.37,2013-04-20 08:48:00,
2013-04-20 03:50:00,31.7,27.7,30.13,NNW,327,0.1,2.3,85,0.00,CLR,,0.00,0.0,WeatherDisplay:10.37,2013-04-20 08:50:00,
2013-04-20 03:52:00,31.9,27.9,30.13,NNW,327,0.0,0.0,85,0.00,CLR,,0.00,0.0,WeatherDisplay:10.37,2013-04-20 08:52:00,
2013-04-20 03:53:00,31.9,27.6,30.13,NNW,327,0.0,0.0,84,0.00,CLR,,0.00,0.0,WeatherDisplay:10.37,2013-04-20 08:53:00,
2013-04-20 03:54:00,31.9,27.9,30.13,NNW,327,0.0,0.0,85,0.00,CLR,,0.00,0.0,WeatherDisplay:10.37,2013-04-20 08:54:00,
2013-04-20 03:55:00,32.0,28.0,30.13,NNW,327,0.0,0.0,85,0.00,CLR,,0.00,0.0,WeatherDisplay:10.37,2013-04-20 08:55:00,
2013-04-20 03:57:00,31.7,27.7,30.13,NNW,327,0.0,0.0,85,0.00,CLR,,0.00,0.0,WeatherDisplay:10.37,2013-04-20 08:57:00,
2013-04-20 03:58:00,31.5,27.8,30.13,NNW,327,0.0,0.0,86,0.00,CLR,,0.00,0.0,WeatherDisplay:10.37,2013-04-20 08:58:00,
2013-04-20 03:59:00,31.5,27.8,30.13,NNW,327,0.0,0.0,86,0.00,CLR,,0.00,0.0,WeatherDisplay:10.37,2013-04-20 08:59:00,
2013-04-20 04:01:00,31.1,27.7,30.13,NNW,327,0.0,0.0,87,0.00,CLR,,0.00,0.0,WeatherDisplay:10.37,2013-04-20 09:01:00,
2013-04-20 04:03:00,30.9,27.8,30.13,NNW,327,0.0,0.0,88,0.00,CLR,,0.00,0.0,WeatherDisplay:10.37,2013-04-20 09:03:00,
2013-04-20 04:04:00,30.8,27.7,30.13,NNW,327,0.0,0.0,88,0.00,CLR,,0.00,0.0,WeatherDisplay:10.37,2013-04-20 09:04:00,
2013-04-20 04:06:00,30.6,27.5,30.13,NNW,327,0.0,0.0,88,0.00,CLR,,0.00,0.0,WeatherDisplay:10.37,2013-04-20 09:06:00,
2013-04-20 04:08:00,30.6,27.5,30.13,NNW,327,0.0,0.0,88,0.00,CLR,,0.00,0.0,WeatherDisplay:10.37,2013-04-20 09:08:00,
2013-04-20 04:09:00,30.6,27.5,30.13,NNW,327,0.0,0.0,88,0.00,CLR,,0.00,0.0,WeatherDisplay:10.37,2013-04-20 09:09:00,
2013-04-20 04:11:00,30.6,27.5,30.13,NNW,327,0.0,0.0,88,0.00,CLR,,0.00,0.0,WeatherDisplay:10.37,2013-04-20 09:11:00,
2013-04-20 04:13:00,30.5,27.4,30.13,NNW,327,0.0,0.0,88,0.00,CLR,,0.00,0.0,WeatherDisplay:10.37,2013-04-20 09:13:00,
2013-04-20 04:14:00,30.5,27.4,30.13,NNW,327,0.0,0.0,88,0.00,CLR,,0.00,0.0,WeatherDisplay:10.37,2013-04-20 09:14:00,
2013-04-20 04:15:00,30.5,27.4,30.14,NNW,327,0.0,0.0,88,0.00,CLR,,0.00,0.0,WeatherDisplay:10.37,2013-04-20 09:15:00,
2013-04-20 04:16:00,30.5,27.4,30.14,NNW,327,0.0,0.0,88,0.00,CLR,,0.00,0.0,WeatherDisplay:10.37,2013-04-20 09:16:00,
2013-04-20 04:18:00,30.6,27.5,30.14,NNW,327,0.0,0.0,88,0.00,CLR,,0.00,0.0,WeatherDisplay:10.37,2013-04-20 09:18:00,
2013-04-20 04:19:00,30.6,27.5,30.14,NNW,327,0.0,0.0,88,0.00,CLR,,0.00,0.0,WeatherDisplay:10.37,2013-04-20 09:19:00,
2013-04-20 04:20:00,30.7,27.6,30.14,NNW,327,0.0,0.0,88,0.00,CLR,,0.00,0.0,WeatherDisplay:10.37,2013-04-20 09:20:00,
2013-04-20 04:22:00,30.9,27.5,30.14,NNW,327,0.0,0.0,87,0.00,CLR,,0.00,0.0,WeatherDisplay:10.37,2013-04-20 09:22:00,
2013-04-20 04:24:00,30.9,27.2,30.14,NNW,327,0.0,0.0,86,0.00,CLR,,0.00,0.0,WeatherDisplay:10.37,2013-04-20 09:24:00,
2013-04-20 04:25:00,30.9,27.2,30.14,NNW,327,0.0,0.0,86,0.00,CLR,,0.00,0.0,WeatherDisplay:10.37,2013-04-20 09:25:00,
2013-04-20 04:27:00,30.8,27.1,30.15,NNW,327,0.0,0.0,86,0.00,CLR,,0.00,0.0,WeatherDisplay:10.37,2013-04-20 09:27:00,
2013-04-20 04:29:00,30.8,27.1,30.15,NNW,327,0.0,0.0,86,0.00,CLR,,0.00,0.0,WeatherDisplay:10.37,2013-04-20 09:29:00,
2013-04-20 04:30:00,30.7,27.0,30.15,NNW,327,0.0,0.0,86,0.00,CLR,,0.00,0.0,WeatherDisplay:10.37,2013-04-20 09:30:00,
2013-04-20 04:32:00,30.5,26.8,30.15,NNW,327,0.0,0.0,86,0.00,CLR,,0.00,0.0,WeatherDisplay:10.37,2013-04-20 09:32:00,
2013-04-20 04:34:00,30.3,26.9,30.15,NNW,327,0.0,0.0,87,0.00,CLR,,0.00,0.0,WeatherDisplay:10.37,2013-04-20 09:34:00,
2013-04-20 04:35:00,30.2,27.1,30.15,NNW,327,0.0,0.0,88,0.00,CLR,,0.00,0.0,WeatherDisplay:10.37,2013-04-20 09:35:00,
2013-04-20 04:37:00,30.1,27.0,30.15,NNW,327,0.0,0.0,88,0.00,CLR,,0.00,0.0,WeatherDisplay:10.37,2013-04-20 09:37:00,
2013-04-20 04:39:00,30.0,27.2,30.15,NNW,327,0.0,0.0,89,0.00,CLR,,0.00,0.0,WeatherDisplay:10.37,2013-04-20 09:39:00,
2013-04-20 04:40:00,30.0,27.2,30.15,NNW,327,0.0,0.0,89,0.00,CLR,,0.00,0.0,WeatherDisplay:10.37,2013-04-20 09:40:00,
2013-04-20 04:42:00,30.0,27.2,30.15,NNW,327,0.0,0.0,89,0.00,CLR,,0.00,0.0,WeatherDisplay:10.37,2013-04-20 09:42:00,
2013-04-20 04:44:00,30.0,27.2,30.15,NNW,327,0.0,0.0,89,0.00,CLR,,0.00,0.0,WeatherDisplay:10.37,2013-04-20 09:44:00,
2013-04-20 04:45:00,30.0,27.2,30.15,NNW,327,0.0,0.0,89,0.00,CLR,,0.00,0.0,WeatherDisplay:10.37,2013-04-20 09:45:00,
2013-04-20 04:46:00,30.0,27.2,30.15,NNW,327,0.0,0.0,89,0.00,CLR,,0.00,0.0,WeatherDisplay:10.37,2013-04-20 09:46:00,
2013-04-20 04:47:00,30.1,27.3,30.15,NNW,327,0.0,0.0,89,0.00,CLR,,0.00,0.0,WeatherDisplay:10.37,2013-04-20 09:47:00,
2013-04-20 04:49:00,30.2,27.3,30.15,NNW,327,0.0,0.0,89,0.00,CLR,,0.00,0.0,WeatherDisplay:10.37,2013-04-20 09:49:00,
2013-04-20 04:50:00,30.2,27.3,30.15,NNW,327,0.0,0.0,89,0.00,CLR,,0.00,0.0,WeatherDisplay:10.37,2013-04-20 09:50:00,
2013-04-20 04:51:00,30.2,27.3,30.15,NNW,327,0.0,0.0,89,0.00,CLR,,0.00,0.0,WeatherDisplay:10.37,2013-04-20 09:51:00,
2013-04-20 04:53:00,30.3,27.2,30.15,NNW,327,0.0,0.0,88,0.00,CLR,,0.00,0.0,WeatherDisplay:10.37,2013-04-20 09:53:00,
2013-04-20 04:54:00,30.3,27.2,30.15,NNW,327,0.0,0.0,88,0.00,CLR,,0.00,0.0,WeatherDisplay:10.37,2013-04-20 09:54:00,
2013-04-20 04:56:00,30.2,27.1,30.15,NNW,327,0.0,0.0,88,0.00,CLR,,0.00,0.0,WeatherDisplay:10.37,2013-04-20 09:56:00,
2013-04-20 04:59:00,29.8,26.7,30.15,NNW,327,0.0,0.0,88,0.00,CLR,,0.00,0.0,WeatherDisplay:10.37,2013-04-20 09:59:00,
2013-04-20 05:01:00,29.6,26.5,30.15,NNW,327,0.0,0.0,88,0.00,CLR,,0.00,0.0,WeatherDisplay:10.37,2013-04-20 10:01:00,
2013-04-20 05:04:00,29.6,26.5,30.15,NNW,327,0.0,0.0,88,0.00,CLR,,0.00,0.0,WeatherDisplay:10.37,2013-04-20 10:04:00,
2013-04-20 05:05:00,29.6,26.8,30.15,NNW,327,0.0,0.0,89,0.00,CLR,,0.00,0.0,WeatherDisplay:10.37,2013-04-20 10:05:00,
2013-04-20 05:06:00,29.6,26.8,30.15,NNW,327,0.0,0.0,89,0.00,CLR,,0.00,0.0,WeatherDisplay:10.37,2013-04-20 10:06:00,
2013-04-20 05:07:00,29.6,26.8,30.16,NNW,327,0.0,0.0,89,0.00,CLR,,0.00,0.0,WeatherDisplay:10.37,2013-04-20 10:07:00,
2013-04-20 05:09:00,29.8,27.0,30.15,NNW,327,0.0,0.0,89,0.00,CLR,,0.00,0.0,WeatherDisplay:10.37,2013-04-20 10:09:00,
2013-04-20 05:10:00,29.8,27.0,30.15,NNW,327,0.0,0.0,89,0.00,CLR,,0.00,0.0,WeatherDisplay:10.37,2013-04-20 10:10:00,
2013-04-20 05:11:00,29.7,26.6,30.15,NNW,327,0.0,0.0,88,0.00,CLR,,0.00,0.0,WeatherDisplay:10.37,2013-04-20 10:11:00,
2013-04-20 05:12:00,29.7,26.6,30.15,NNW,327,0.0,0.0,88,0.00,CLR,,0.00,0.0,WeatherDisplay:10.37,2013-04-20 10:12:00,
2013-04-20 05:14:00,29.6,26.8,30.15,NNW,327,0.0,0.0,89,0.00,CLR,,0.00,0.0,WeatherDisplay:10.37,2013-04-20 10:14:00,
2013-04-20 05:15:00,29.6,26.8,30.15,NNW,327,0.0,0.0,89,0.00,CLR,,0.00,0.0,WeatherDisplay:10.37,2013-04-20 10:15:00,
2013-04-20 05:16:00,29.6,26.8,30.15,NNW,327,0.0,0.0,89,0.00,CLR,,0.00,0.0,WeatherDisplay:10.37,2013-04-20 10:16:00,
2013-04-20 05:17:00,29.5,26.7,30.15,NNW,327,0.0,0.0,89,0.00,CLR,,0.00,0.0,WeatherDisplay:10.37,2013-04-20 10:17:00,
2013-04-20 05:19:00,29.4,26.8,30.15,NNW,327,0.0,0.0,90,0.00,CLR,,0.00,0.0,WeatherDisplay:10.37,2013-04-20 10:19:00,
2013-04-20 05:21:00,29.5,26.9,30.15,NNW,327,0.0,0.0,90,0.00,CLR,,0.00,0.0,WeatherDisplay:10.37,2013-04-20 10:21:00,
2013-04-20 05:22:00,29.5,26.9,30.15,NNW,327,0.0,0.0,90,0.00,CLR,,0.00,0.0,WeatherDisplay:10.37,2013-04-20 10:22:00,
2013-04-20 05:24:00,29.6,26.8,30.15,NNW,327,0.0,0.0,89,0.00,CLR,,0.00,0.0,WeatherDisplay:10.37,2013-04-20 10:24:00,
2013-04-20 05:26:00,29.4,26.3,30.15,NNW,327,0.0,0.0,88,0.00,CLR,,0.00,0.0,WeatherDisplay:10.37,2013-04-20 10:26:00,
2013-04-20 05:27:00,29.3,26.2,30.15,NNW,327,0.0,0.0,88,0.00,CLR,,0.00,0.0,WeatherDisplay:10.37,2013-04-20 10:27:00,
2013-04-20 05:29:00,29.2,26.6,30.15,NNW,327,0.3,1.2,90,0.00,CLR,,0.00,0.0,WeatherDisplay:10.37,2013-04-20 10:29:00,
2013-04-20 05:31:00,29.2,26.6,30.15,NNW,327,0.0,0.0,90,0.00,CLR,,0.00,0.0,WeatherDisplay:10.37,2013-04-20 10:31:00,
2013-04-20 05:32:00,29.2,26.6,30.15,NNW,327,0.0,0.0,90,0.00,CLR,,0.00,0.0,WeatherDisplay:10.37,2013-04-20 10:32:00,
2013-04-20 05:35:00,29.1,26.5,30.15,NNW,327,0.0,0.0,90,0.00,CLR,,0.00,0.0,WeatherDisplay:10.37,2013-04-20 10:35:00,
2013-04-20 05:36:00,29.2,26.6,30.15,NNW,327,0.0,0.0,90,0.00,CLR,,0.00,0.0,WeatherDisplay:10.37,2013-04-20 10:36:00,
2013-04-20 05:38:00,29.3,26.7,30.15,NNW,327,0.0,0.0,90,0.00,CLR,,0.00,0.0,WeatherDisplay:10.37,2013-04-20 10:38:00,
2013-04-20 05:40:00,29.3,26.7,30.16,NNW,327,0.0,0.0,90,0.00,CLR,,0.00,0.0,WeatherDisplay:10.37,2013-04-20 10:40:00,
2013-04-20 05:42:00,29.2,26.6,30.15,NNW,327,0.0,0.0,90,0.00,CLR,,0.00,0.0,WeatherDisplay:10.37,2013-04-20 10:42:00,
2013-04-20 05:43:00,29.1,26.3,30.15,NNW,327,0.0,0.0,89,0.00,CLR,,0.00,0.0,WeatherDisplay:10.37,2013-04-20 10:43:00,
2013-04-20 05:45:00,29.0,26.4,30.15,NNW,327,0.0,0.0,90,0.00,CLR,,0.00,0.0,WeatherDisplay:10.37,2013-04-20 10:45:00,
2013-04-20 05:47:00,29.0,26.4,30.16,NNW,327,0.0,0.0,90,0.00,CLR,,0.00,0.0,WeatherDisplay:10.37,2013-04-20 10:47:00,
2013-04-20 05:48:00,29.0,26.7,30.16,NNW,327,0.0,0.0,91,0.00,CLR,,0.00,0.0,WeatherDisplay:10.37,2013-04-20 10:48:00,
2013-04-20 05:50:00,29.0,26.7,30.16,NNW,327,0.0,0.0,91,0.00,CLR,,0.00,0.0,WeatherDisplay:10.37,2013-04-20 10:50:00,
2013-04-20 05:52:00,29.1,26.8,30.16,NNW,327,0.0,0.0,91,0.00,CLR,,0.00,0.0,WeatherDisplay:10.37,2013-04-20 10:52:00,
2013-04-20 05:53:00,29.1,26.8,30.16,NNW,327,0.0,0.0,91,0.00,CLR,,0.00,0.0,WeatherDisplay:10.37,2013-04-20 10:53:00,
2013-04-20 05:55:00,29.0,26.4,30.16,NNW,327,0.0,0.0,90,0.00,CLR,,0.00,0.0,WeatherDisplay:10.37,2013-04-20 10:55:00,
2013-04-20 05:57:00,29.1,26.5,30.16,NNW,327,0.0,0.0,90,0.00,CLR,,0.00,0.0,WeatherDisplay:10.37,2013-04-20 10:57:00,
2013-04-20 05:58:00,29.1,26.5,30.16,NNW,327,0.0,0.0,90,0.00,CLR,,0.00,0.0,WeatherDisplay:10.37,2013-04-20 10:58:00,
2013-04-20 06:00:00,29.0,26.4,30.16,NNW,327,0.0,0.0,90,0.00,CLR,,0.00,0.0,WeatherDisplay:10.37,2013-04-20 11:00:00,
2013-04-20 06:02:00,28.9,26.3,30.16,NNW,327,0.0,0.0,90,0.00,CLR,,0.00,0.0,WeatherDisplay:10.37,2013-04-20 11:02:00,
2013-04-20 06:03:00,28.9,26.3,30.16,NNW,327,0.0,0.0,90,0.00,CLR,,0.00,0.0,WeatherDisplay:10.37,2013-04-20 11:03:00,
2013-04-20 06:04:00,29.0,26.4,30.16,NNW,327,0.0,0.0,90,0.00,CLR,,0.00,0.0,WeatherDisplay:10.37,2013-04-20 11:04:00,
2013-04-20 06:05:00,28.9,26.6,30.16,NNW,327,0.0,0.0,91,0.00,CLR,,0.00,0.0,WeatherDisplay:10.37,2013-04-20 11:05:00,
2013-04-20 06:07:00,28.9,26.6,30.17,NNW,327,0.0,0.0,91,0.00,CLR,,0.00,0.0,WeatherDisplay:10.37,2013-04-20 11:07:00,
2013-04-20 06:09:00,29.0,26.7,30.17,NNW,327,0.0,0.0,91,0.00,CLR,,0.00,0.0,WeatherDisplay:10.37,2013-04-20 11:09:00,
2013-04-20 06:10:00,29.1,26.5,30.17,NNW,327,0.0,0.0,90,0.00,CLR,,0.00,0.0,WeatherDisplay:10.37,2013-04-20 11:10:00,
2013-04-20 06:12:00,29.1,26.3,30.17,NNW,327,0.0,0.0,89,0.00,CLR,,0.00,0.0,WeatherDisplay:10.37,2013-04-20 11:12:00,
2013-04-20 06:14:00,29.0,26.4,30.17,NNW,327,0.0,0.0,90,0.00,CLR,,0.00,0.0,WeatherDisplay:10.37,2013-04-20 11:14:00,
2013-04-20 06:15:00,29.1,26.5,30.17,NNW,327,0.0,0.0,90,0.00,CLR,,0.00,0.0,WeatherDisplay:10.37,2013-04-20 11:15:00,
2013-04-20 06:17:00,29.2,26.9,30.17,NNW,327,0.0,0.0,91,0.00,CLR,,0.00,0.0,WeatherDisplay:10.37,2013-04-20 11:17:00,
2013-04-20 06:19:00,29.2,26.6,30.17,NNW,327,0.0,0.0,90,0.00,CLR,,0.00,0.0,WeatherDisplay:10.37,2013-04-20 11:19:00,
2013-04-20 06:20:00,29.1,26.5,30.17,NNW,327,0.0,0.0,90,0.00,CLR,,0.00,0.0,WeatherDisplay:10.37,2013-04-20 11:20:00,
2013-04-20 06:21:00,29.0,26.4,30.17,NNW,327,0.0,0.0,90,0.00,CLR,,0.00,0.0,WeatherDisplay:10.37,2013-04-20 11:21:00,
2013-04-20 06:23:00,28.9,26.3,30.17,NNW,327,0.0,0.0,90,0.00,CLR,,0.00,0.0,WeatherDisplay:10.37,2013-04-20 11:23:00,
2013-04-20 06:24:00,28.9,26.3,30.17,NNW,327,0.0,0.0,90,0.00,CLR,,0.00,0.0,WeatherDisplay:10.37,2013-04-20 11:24:00,
2013-04-20 06:25:00,28.8,26.2,30.17,NNW,327,0.0,0.0,90,0.00,CLR,,0.00,0.0,WeatherDisplay:10.37,2013-04-20 11:25:00,
2013-04-20 06:26:00,28.7,26.1,30.17,NNW,327,0.0,0.0,90,0.00,CLR,,0.00,0.0,WeatherDisplay:10.37,2013-04-20 11:26:00,
2013-04-20 06:28:00,28.6,26.0,30.17,NNW,327,0.0,0.0,90,0.00,CLR,,0.00,0.0,WeatherDisplay:10.37,2013-04-20 11:28:00,
2013-04-20 06:29:00,28.6,26.0,30.17,NNW,327,0.0,0.0,90,0.00,CLR,,0.00,0.0,WeatherDisplay:10.37,2013-04-20 11:29:00,
2013-04-20 06:30:00,28.6,26.3,30.17,NNW,327,0.0,0.0,91,0.00,CLR,,0.00,0.0,WeatherDisplay:10.37,2013-04-20 11:30:00,
2013-04-20 06:31:00,28.6,26.3,30.17,NNW,327,0.0,0.0,91,0.00,CLR,,0.00,0.0,WeatherDisplay:10.37,2013-04-20 11:31:00,
2013-04-20 06:33:00,28.6,26.3,30.17,NNW,327,0.0,0.0,91,0.00,CLR,,0.00,0.0,WeatherDisplay:10.37,2013-04-20 11:33:00,
2013-04-20 06:34:00,28.7,26.4,30.17,NNW,327,0.0,0.0,91,0.00,CLR,,0.00,0.0,WeatherDisplay:10.37,2013-04-20 11:34:00,
2013-04-20 06:35:00,28.7,26.4,30.17,NNW,327,0.0,0.0,91,0.00,CLR,,0.00,0.0,WeatherDisplay:10.37,2013-04-20 11:35:00,
2013-04-20 06:36:00,28.8,26.8,30.17,NNW,327,0.0,0.0,92,0.00,CLR,,0.00,0.0,WeatherDisplay:10.37,2013-04-20 11:36:00,
2013-04-20 06:38:00,28.9,26.9,30.17,NNW,327,0.0,0.0,92,0.00,BKN,,0.00,5.0,WeatherDisplay:10.37,2013-04-20 11:38:00,
2013-04-20 06:39:00,29.0,26.7,30.18,NNW,327,0.0,0.0,91,0.00,BKN,,0.00,5.0,WeatherDisplay:10.37,2013-04-20 11:39:00,
2013-04-20 06:40:00,29.0,26.7,30.18,NNW,327,0.0,0.0,91,0.00,BKN,,0.00,5.0,WeatherDisplay:10.37,2013-04-20 11:40:00,
2013-04-20 06:41:00,29.1,26.8,30.18,NNW,327,0.0,0.0,91,0.00,BKN,,0.00,7.0,WeatherDisplay:10.37,2013-04-20 11:41:00,
2013-04-20 06:43:00,29.1,26.8,30.18,NNW,327,0.0,0.0,91,0.00,BKN,,0.00,7.0,WeatherDisplay:10.37,2013-04-20 11:43:00,
2013-04-20 06:44:00,29.2,26.9,30.18,NNW,327,0.0,0.0,91,0.00,BKN,,0.00,7.0,WeatherDisplay:10.37,2013-04-20 11:44:00,
2013-04-20 06:45:00,29.2,26.9,30.18,NNW,327,0.0,0.0,91,0.00,BKN,,0.00,7.0,WeatherDisplay:10.37,2013-04-20 11:45:00,
2013-04-20 06:47:00,29.2,26.9,30.18,NNW,327,0.0,0.0,91,0.00,BKN,,0.00,9.0,WeatherDisplay:10.37,2013-04-20 11:47:00,
2013-04-20 06:48:00,29.3,27.0,30.18,NNW,327,0.0,0.0,91,0.00,BKN,,0.00,11.0,WeatherDisplay:10.37,2013-04-20 11:48:00,
2013-04-20 06:50:00,29.4,27.1,30.18,NNW,327,0.0,0.0,91,0.00,BKN,,0.00,11.0,WeatherDisplay:10.37,2013-04-20 11:50:00,
2013-04-20 06:51:00,29.4,26.8,30.18,NNW,327,0.0,0.0,90,0.00,BKN,,0.00,11.0,WeatherDisplay:10.37,2013-04-20 11:51:00,
2013-04-20 06:52:00,29.4,26.8,30.18,NNW,327,0.0,0.0,90,0.00,BKN,,0.00,12.0,WeatherDisplay:10.37,2013-04-20 11:52:00,
2013-04-20 06:53:00,29.2,26.6,30.18,NNW,327,0.0,0.0,90,0.00,SCT,,0.00,12.0,WeatherDisplay:10.37,2013-04-20 11:53:00,
2013-04-20 06:55:00,29.2,26.6,30.18,NNW,327,0.0,0.0,90,0.00,SCT,,0.00,12.0,WeatherDisplay:10.37,2013-04-20 11:55:00,
2013-04-20 06:56:00,29.2,26.9,30.18,NNW,327,0.0,0.0,91,0.00,SCT,,0.00,14.0,WeatherDisplay:10.37,2013-04-20 11:56:00,
2013-04-20 06:57:00,29.2,26.9,30.18,NNW,327,0.0,0.0,91,0.00,CLR,,0.00,14.0,WeatherDisplay:10.37,2013-04-20 11:57:00,
2013-04-20 06:59:00,29.2,26.6,30.18,NNW,327,0.0,0.0,90,0.00,CLR,,0.00,16.0,WeatherDisplay:10.37,2013-04-20 11:59:00,
2013-04-20 07:00:00,29.3,27.0,30.18,NNW,327,0.0,0.0,91,0.00,CLR,,0.00,16.0,WeatherDisplay:10.37,2013-04-20 12:00:00,
2013-04-20 07:01:00,29.3,27.0,30.18,NNW,327,0.0,0.0,91,0.00,CLR,,0.00,16.0,WeatherDisplay:10.37,2013-04-20 12:01:00,
2013-04-20 07:02:00,29.4,26.8,30.18,NNW,327,0.0,0.0,90,0.00,CLR,,0.00,18.0,WeatherDisplay:10.37,2013-04-20 12:02:00,
2013-04-20 07:05:00,29.5,26.9,30.18,NNW,327,0.0,0.0,90,0.00,CLR,,0.00,19.0,WeatherDisplay:10.37,2013-04-20 12:05:00,
2013-04-20 07:06:00,29.5,26.9,30.18,NNW,327,0.0,0.0,90,0.00,CLR,,0.00,19.0,WeatherDisplay:10.37,2013-04-20 12:06:00,
2013-04-20 07:07:00,29.5,26.9,30.18,NNW,327,0.0,0.0,90,0.00,CLR,,0.00,19.0,WeatherDisplay:10.37,2013-04-20 12:07:00,
2013-04-20 07:08:00,29.5,26.9,30.18,NNW,327,0.0,0.0,90,0.00,CLR,,0.00,19.0,WeatherDisplay:10.37,2013-04-20 12:08:00,
2013-04-20 07:10:00,29.5,26.9,30.18,NNW,327,0.0,0.0,90,0.00,CLR,,0.00,23.0,WeatherDisplay:10.37,2013-04-20 12:10:00,
2013-04-20 07:11:00,29.6,27.0,30.18,NNW,327,0.0,0.0,90,0.00,CLR,,0.00,23.0,WeatherDisplay:10.37,2013-04-20 12:11:00,
2013-04-20 07:12:00,29.7,27.1,30.18,NNW,327,0.0,0.0,90,0.00,CLR,,0.00,23.0,WeatherDisplay:10.37,2013-04-20 12:12:00,
2013-04-20 07:13:00,29.8,27.2,30.18,NNW,327,0.0,0.0,90,0.00,CLR,,0.00,26.0,WeatherDisplay:10.37,2013-04-20 12:13:00,
2013-04-20 07:15:00,29.9,27.3,30.18,NNW,327,0.0,0.0,90,0.00,CLR,,0.00,26.0,WeatherDisplay:10.37,2013-04-20 12:15:00,
2013-04-20 07:16:00,30.0,27.4,30.18,North,11,0.5,1.0,90,0.00,CLR,,0.00,26.0,WeatherDisplay:10.37,2013-04-20 12:16:00,
2013-04-20 07:17:00,30.0,27.4,30.18,North,11,0.2,1.2,90,0.00,CLR,,0.00,26.0,WeatherDisplay:10.37,2013-04-20 12:17:00,
2013-04-20 07:19:00,30.1,27.5,30.18,North,11,0.0,1.2,90,0.00,CLR,,0.00,26.0,WeatherDisplay:10.37,2013-04-20 12:19:00,
2013-04-20 07:20:00,30.3,27.7,30.18,NNE,17,0.0,1.0,90,0.00,CLR,,0.00,28.0,WeatherDisplay:10.37,2013-04-20 12:20:00,
2013-04-20 07:22:00,31.0,27.6,30.18,East,94,0.3,2.3,87,0.00,CLR,,0.00,32.0,WeatherDisplay:10.37,2013-04-20 12:22:00,
2013-04-20 07:24:00,31.6,27.6,30.18,East,98,0.2,2.3,85,0.00,CLR,,0.00,39.0,WeatherDisplay:10.37,2013-04-20 12:24:00,
2013-04-20 07:25:00,32.1,27.5,30.18,ESE,105,1.3,3.5,83,0.00,CLR,,0.00,44.0,WeatherDisplay:10.37,2013-04-20 12:25:00,
2013-04-20 07:26:00,32.3,27.7,30.19,ESE,105,0.5,1.2,83,0.00,CLR,,0.00,46.0,WeatherDisplay:10.37,2013-04-20 12:26:00,
2013-04-20 07:27:00,32.6,27.7,30.18,ESE,109,1.4,2.0,82,0.00,CLR,,0.00,46.0,WeatherDisplay:10.37,2013-04-20 12:27:00,
2013-04-20 07:29:00,33.3,27.8,30.19,ESE,104,1.5,2.3,80,0.00,CLR,,0.00,47.0,WeatherDisplay:10.37,2013-04-20 12:29:00,
2013-04-20 07:30:00,33.7,27.6,30.19,ESE,117,1.0,2.3,78,0.00,CLR,,0.00,53.0,WeatherDisplay:10.37,2013-04-20 12:30:00,
2013-04-20 07:31:00,33.9,28.1,30.19,ESE,117,0.4,1.2,79,0.00,CLR,,0.00,58.0,WeatherDisplay:10.37,2013-04-20 12:31:00,
2013-04-20 07:32:00,34.1,28.0,30.19,ESE,117,1.2,2.0,78,0.00,CLR,,0.00,58.0,WeatherDisplay:10.37,2013-04-20 12:32:00,
2013-04-20 07:33:00,34.2,28.1,30.19,ESE,117,1.6,2.3,78,0.00,CLR,,0.00,58.0,WeatherDisplay:10.37,2013-04-20 12:33:00,
2013-04-20 07:34:00,34.5,27.4,30.19,ESE,117,1.2,2.3,75,0.00,CLR,,0.00,54.0,WeatherDisplay:10.37,2013-04-20 12:34:00,
2013-04-20 07:36:00,34.8,27.7,30.19,East,86,1.2,3.5,75,0.00,CLR,,0.00,58.0,WeatherDisplay:10.37,2013-04-20 12:36:00,
2013-04-20 07:37:00,35.2,27.7,30.19,ENE,74,1.4,2.3,74,0.00,CLR,,0.00,54.0,WeatherDisplay:10.37,2013-04-20 12:37:00,
2013-04-20 07:38:00,35.3,27.8,30.19,East,84,1.0,2.3,74,0.00,CLR,,0.00,54.0,WeatherDisplay:10.37,2013-04-20 12:38:00,
2013-04-20 07:39:00,35.4,27.9,30.19,NE,53,1.4,2.3,74,0.00,CLR,,0.00,47.0,WeatherDisplay:10.37,2013-04-20 12:39:00,
2013-04-20 07:41:00,35.6,27.5,30.19,East,89,1.7,3.5,72,0.00,CLR,,0.00,53.0,WeatherDisplay:10.37,2013-04-20 12:41:00,
2013-04-20 07:42:00,35.7,27.6,30.19,East,88,0.6,2.3,72,0.00,CLR,,0.00,67.0,WeatherDisplay:10.37,2013-04-20 12:42:00,
2013-04-20 07:43:00,35.8,27.7,30.19,East,88,0.1,1.2,72,0.00,CLR,,0.00,53.0,WeatherDisplay:10.37,2013-04-20 12:43:00,
2013-04-20 07:44:00,35.9,28.1,30.19,East,88,0.0,0.0,73,0.00,CLR,,0.00,54.0,WeatherDisplay:10.37,2013-04-20 12:44:00,
2013-04-20 07:46:00,35.9,27.4,30.19,East,93,2.6,4.6,71,0.00,CLR,,0.00,54.0,WeatherDisplay:10.37,2013-04-20 12:46:00,
2013-04-20 07:47:00,36.0,27.2,30.19,East,94,3.0,3.5,70,0.00,CLR,,0.00,53.0,WeatherDisplay:10.37,2013-04-20 12:47:00,
2013-04-20 07:48:00,36.1,27.3,30.19,East,94,2.6,6.9,70,0.00,CLR,,0.00,53.0,WeatherDisplay:10.37,2013-04-20 12:48:00,
2013-04-20 07:49:00,36.2,27.4,30.19,ENE,69,1.6,2.3,70,0.00,CLR,,0.00,54.0,WeatherDisplay:10.37,2013-04-20 12:49:00,
2013-04-20 07:50:00,36.2,27.4,30.19,ENE,69,0.9,3.5,70,0.00,CLR,,0.00,54.0,WeatherDisplay:10.37,2013-04-20 12:50:00,
2013-04-20 07:52:00,36.2,27.7,30.19,ENE,69,0.0,1.2,71,0.00,CLR,,0.00,58.0,WeatherDisplay:10.37,2013-04-20 12:52:00,
2013-04-20 07:53:00,36.2,27.7,30.19,ENE,69,0.6,2.3,71,0.00,CLR,,0.00,63.0,WeatherDisplay:10.37,2013-04-20 12:53:00,
2013-04-20 07:55:00,36.2,28.0,30.19,ENE,69,0.4,1.2,72,0.00,CLR,,0.00,67.0,WeatherDisplay:10.37,2013-04-20 12:55:00,
2013-04-20 07:57:00,36.4,27.2,30.19,ESE,111,1.5,5.8,69,0.00,CLR,,0.00,74.0,WeatherDisplay:10.37,2013-04-20 12:57:00,
2013-04-20 07:58:00,36.5,27.3,30.19,ENE,66,1.6,3.0,69,0.00,CLR,,0.00,72.0,WeatherDisplay:10.37,2013-04-20 12:58:00,
2013-04-20 08:00:00,36.6,27.0,30.19,ESE,103,1.6,2.3,68,0.00,OVC,,0.00,72.0,WeatherDisplay:10.37,2013-04-20 13:00:00,
2013-04-20 08:02:00,36.7,27.5,30.19,ENE,65,2.0,5.0,69,0.00,OVC,,0.00,70.0,WeatherDisplay:10.37,2013-04-20 13:02:00,
2013-04-20 08:03:00,36.7,27.5,30.19,ESE,109,2.3,4.6,69,0.00,OVC,,0.00,69.0,WeatherDisplay:10.37,2013-04-20 13:03:00,
2013-04-20 08:05:00,36.8,27.2,30.19,East,92,1.8,3.5,68,0.00,OVC,,0.00,67.0,WeatherDisplay:10.37,2013-04-20 13:05:00,
2013-04-20 08:07:00,36.9,27.3,30.19,ENE,61,1.2,3.5,68,0.00,OVC,,0.00,69.0,WeatherDisplay:10.37,2013-04-20 13:07:00,
2013-04-20 08:08:00,36.9,27.3,30.19,East,97,1.8,3.5,68,0.00,OVC,,0.00,74.0,WeatherDisplay:10.37,2013-04-20 13:08:00,
2013-04-20 08:10:00,36.9,27.7,30.19,East,99,1.1,3.0,69,0.00,OVC,,0.00,84.0,WeatherDisplay:10.37,2013-04-20 13:10:00,
2013-04-20 08:13:00,37.0,27.1,30.19,ENE,63,1.5,3.5,67,0.00,OVC,,0.00,95.0,WeatherDisplay:10.37,2013-04-20 13:13:00,
2013-04-20 08:14:00,37.1,27.5,30.19,ENE,63,0.0,0.0,68,0.00,OVC,,0.00,130.0,WeatherDisplay:10.37,2013-04-20 13:14:00,
2013-04-20 08:16:00,37.3,27.3,30.20,SE,126,1.8,3.5,67,0.00,OVC,,0.00,158.0,WeatherDisplay:10.37,2013-04-20 13:16:00,
2013-04-20 08:18:00,37.6,27.6,30.19,East,86,0.7,3.5,67,0.00,OVC,,0.00,128.0,WeatherDisplay:10.37,2013-04-20 13:18:00,
2013-04-20 08:19:00,37.8,27.8,30.19,ESE,114,1.2,3.5,67,0.00,OVC,,0.00,148.0,WeatherDisplay:10.37,2013-04-20 13:19:00,
2013-04-20 08:21:00,38.2,27.8,30.19,NE,51,1.5,3.5,66,0.00,OVC,,0.00,202.0,WeatherDisplay:10.37,2013-04-20 13:21:00,
2013-04-20 08:23:00,38.4,28.0,30.19,ENE,68,1.7,3.5,66,0.00,OVC,,0.00,204.0,WeatherDisplay:10.37,2013-04-20 13:23:00,
2013-04-20 08:24:00,38.6,28.2,30.19,East,88,2.1,3.5,66,0.00,OVC,,0.00,220.0,WeatherDisplay:10.37,2013-04-20 13:24:00,
2013-04-20 08:26:00,39.1,27.9,30.19,ENE,78,2.1,3.5,64,0.00,OVC,,0.00,229.0,WeatherDisplay:10.37,2013-04-20 13:26:00,
2013-04-20 08:28:00,39.1,27.2,30.19,ENE,72,4.1,4.6,62,0.00,OVC,,0.00,258.0,WeatherDisplay:10.37,2013-04-20 13:28:00,
2013-04-20 08:29:00,39.2,27.7,30.19,East,93,2.2,6.9,63,0.00,OVC,,0.00,292.0,WeatherDisplay:10.37,2013-04-20 13:29:00,
2013-04-20 08:31:00,39.6,28.0,30.20,East,101,2.9,5.0,63,0.00,OVC,,0.00,315.0,WeatherDisplay:10.37,2013-04-20 13:31:00,
2013-04-20 08:32:00,39.7,27.7,30.20,East,97,3.9,6.9,62,0.00,OVC,,0.00,315.0,WeatherDisplay:10.37,2013-04-20 13:32:00,
2013-04-20 08:33:00,39.8,27.8,30.20,East,88,2.9,6.0,62,0.00,OVC,,0.00,325.0,WeatherDisplay:10.37,2013-04-20 13:33:00,
2013-04-20 08:34:00,39.9,27.9,30.20,East,80,3.7,5.8,62,0.00,OVC,,0.00,329.0,WeatherDisplay:10.37,2013-04-20 13:34:00,
2013-04-20 08:37:00,40.2,27.8,30.20,East,100,1.0,3.5,61,0.00,OVC,,0.00,338.0,WeatherDisplay:10.37,2013-04-20 13:37:00,
2013-04-20 08:38:00,40.6,28.2,30.21,SE,136,0.9,2.3,61,0.00,OVC,,0.00,341.0,WeatherDisplay:10.37,2013-04-20 13:38:00,
2013-04-20 08:39:00,40.8,29.2,30.21,SE,136,1.3,2.3,63,0.00,OVC,,0.00,339.0,WeatherDisplay:10.37,2013-04-20 13:39:00,
2013-04-20 08:42:00,41.4,29.7,30.21,ESE,109,2.3,3.5,63,0.00,OVC,,0.00,352.0,WeatherDisplay:10.37,2013-04-20 13:42:00,
2013-04-20 08:43:00,41.3,27.6,30.21,ESE,118,4.1,4.1,58,0.00,OVC,,0.00,360.0,WeatherDisplay:10.37,2013-04-20 13:43:00,
2013-04-20 08:44:00,41.3,27.6,30.21,East,84,2.4,4.6,58,0.00,OVC,,0.00,364.0,WeatherDisplay:10.37,2013-04-20 13:44:00,
2013-04-20 08:45:00,41.3,27.6,30.21,East,84,2.3,4.6,58,0.00,OVC,,0.00,364.0,WeatherDisplay:10.37,2013-04-20 13:45:00,
2013-04-20 08:47:00,41.8,29.3,30.21,East,86,0.2,1.2,61,0.00,OVC,,0.00,373.0,WeatherDisplay:10.37,2013-04-20 13:47:00,
2013-04-20 08:48:00,42.1,30.0,30.21,NE,40,1.5,3.5,62,0.00,OVC,,0.00,378.0,WeatherDisplay:10.37,2013-04-20 13:48:00,
2013-04-20 08:49:00,42.3,29.4,30.21,East,90,2.4,3.5,60,0.00,OVC,,0.00,381.0,WeatherDisplay:10.37,2013-04-20 13:49:00,
2013-04-20 08:50:00,42.3,29.0,30.21,SE,136,2.8,5.0,59,0.00,OVC,,0.00,381.0,WeatherDisplay:10.37,2013-04-20 13:50:00,
2013-04-20 08:52:00,42.1,27.9,30.21,ESE,117,2.2,4.6,57,0.00,OVC,,0.00,390.0,WeatherDisplay:10.37,2013-04-20 13:52:00,
2013-04-20 08:53:00,42.2,28.5,30.21,East,79,1.9,3.5,58,0.00,OVC,,0.00,390.0,WeatherDisplay:10.37,2013-04-20 13:53:00,
2013-04-20 08:54:00,42.3,28.1,30.21,East,98,2.1,4.6,57,0.00,OVC,,0.00,399.0,WeatherDisplay:10.37,2013-04-20 13:54:00,
2013-04-20 08:55:00,42.5,28.3,30.21,ENE,74,2.1,5.0,57,0.00,OVC,,0.00,403.0,WeatherDisplay:10.37,2013-04-20 13:55:00,
2013-04-20 08:58:00,42.7,28.5,30.21,ENE,57,2.0,3.5,57,0.00,OVC,,0.00,415.0,WeatherDisplay:10.37,2013-04-20 13:58:00,
2013-04-20 08:59:00,42.8,28.6,30.21,ENE,63,1.6,3.5,57,0.00,OVC,,0.00,420.0,WeatherDisplay:10.37,2013-04-20 13:59:00,
2013-04-20 09:00:00,43.1,29.3,30.21,ESE,108,3.1,4.6,58,0.00,OVC,,0.00,420.0,WeatherDisplay:10.37,2013-04-20 14:00:00,
2013-04-20 09:03:00,43.3,28.2,30.21,East,82,2.1,5.0,55,0.00,OVC,,0.00,417.0,WeatherDisplay:10.37,2013-04-20 14:03:00,
2013-04-20 09:04:00,43.5,28.8,30.21,NE,46,4.3,5.8,56,0.00,OVC,,0.00,425.0,WeatherDisplay:10.37,2013-04-20 14:04:00,
2013-04-20 09:05:00,43.5,27.5,30.21,ESE,109,3.5,5.8,53,0.00,OVC,,0.00,425.0,WeatherDisplay:10.37,2013-04-20 14:05:00,
2013-04-20 09:08:00,43.0,26.6,30.21,ENE,78,1.8,3.5,52,0.00,OVC,,0.00,434.0,WeatherDisplay:10.37,2013-04-20 14:08:00,
2013-04-20 09:09:00,43.1,27.1,30.21,NE,53,1.8,4.0,53,0.00,OVC,,0.00,429.0,WeatherDisplay:10.37,2013-04-20 14:09:00,
2013-04-20 09:10:00,43.2,27.7,30.21,North,11,3.5,6.9,54,0.00,OVC,,0.00,429.0,WeatherDisplay:10.37,2013-04-20 14:10:00,
2013-04-20 09:13:00,43.6,27.6,30.21,ENE,63,2.3,4.6,53,0.00,OVC,,0.00,446.0,WeatherDisplay:10.37,2013-04-20 14:13:00,
2013-04-20 09:14:00,43.8,27.3,30.21,SE,127,3.6,5.8,52,0.00,OVC,,0.00,341.0,WeatherDisplay:10.37,2013-04-20 14:14:00,
2013-04-20 09:15:00,43.8,26.8,30.21,East,97,3.5,6.9,51,0.00,OVC,,0.00,341.0,WeatherDisplay:10.37,2013-04-20 14:15:00,
2013-04-20 09:16:00,43.9,27.4,30.21,NE,40,3.4,6.9,52,0.00,OVC,,0.00,285.0,WeatherDisplay:10.37,2013-04-20 14:16:00,
2013-04-20 09:19:00,44.2,27.2,30.21,NE,34,3.9,10.4,51,0.00,OVC,,0.00,327.0,WeatherDisplay:10.37,2013-04-20 14:19:00,
2013-04-20 09:20:00,44.2,26.7,30.21,ESE,108,3.4,8.1,50,0.00,OVC,,0.00,345.0,WeatherDisplay:10.37,2013-04-20 14:20:00,
2013-04-20 09:21:00,44.3,27.3,30.21,ESE,107,2.9,4.0,51,0.00,OVC,,0.00,352.0,WeatherDisplay:10.37,2013-04-20 14:21:00,
2013-04-20 09:24:00,45.0,27.0,30.21,ESE,103,3.8,4.6,49,0.00,OVC,,0.00,366.0,WeatherDisplay:10.37,2013-04-20 14:24:00,
2013-04-20 09:25:00,44.9,27.4,30.22,East,86,2.8,6.9,50,0.00,OVC,,0.00,397.0,WeatherDisplay:10.37,2013-04-20 14:25:00,
2013-04-20 09:26:00,44.8,27.3,30.22,ESE,121,2.4,4.6,50,0.00,OVC,,0.00,374.0,WeatherDisplay:10.37,2013-04-20 14:26:00,
2013-04-20 09:29:00,44.6,26.6,30.22,ESE,109,2.6,8.1,49,0.00,OVC,,0.00,476.0,WeatherDisplay:10.37,2013-04-20 14:29:00,
2013-04-20 09:31:00,44.5,26.5,30.21,SE,130,4.8,8.1,49,0.00,OVC,,0.00,473.0,WeatherDisplay:10.37,2013-04-20 14:31:00,
2013-04-20 09:32:00,44.5,27.5,30.22,East,87,3.6,4.6,51,0.00,OVC,,0.00,448.0,WeatherDisplay:10.37,2013-04-20 14:32:00,
2013-04-20 09:34:00,44.6,27.6,30.22,SE,145,2.8,5.8,51,0.00,OVC,,0.00,503.0,WeatherDisplay:10.37,2013-04-20 14:34:00,
2013-04-20 09:36:00,45.0,27.0,30.22,SE,132,3.7,5.8,49,0.00,OVC,,0.00,485.0,WeatherDisplay:10.37,2013-04-20 14:36:00,
2013-04-20 09:37:00,45.1,27.6,30.22,East,88,2.4,4.6,50,0.00,OVC,,0.00,513.0,WeatherDisplay:10.37,2013-04-20 14:37:00,
2013-04-20 09:39:00,45.4,27.8,30.22,ESE,113,1.9,5.8,50,0.00,OVC,,0.00,524.0,WeatherDisplay:10.37,2013-04-20 14:39:00,
2013-04-20 09:41:00,45.7,27.6,30.22,ESE,106,3.6,5.0,49,0.00,OVC,,0.00,536.0,WeatherDisplay:10.37,2013-04-20 14:41:00,
2013-04-20 09:42:00,45.6,27.0,30.22,East,89,3.2,5.8,48,0.00,OVC,,0.00,506.0,WeatherDisplay:10.37,2013-04-20 14:42:00,
2013-04-20 09:44:00,45.9,27.8,30.21,SE,130,2.8,3.5,49,0.00,OVC,,0.00,577.0,WeatherDisplay:10.37,2013-04-20 14:44:00,
2013-04-20 09:47:00,45.6,26.5,30.22,ENE,57,3.4,5.8,47,0.00,OVC,,0.00,392.0,WeatherDisplay:10.37,2013-04-20 14:47:00,
2013-04-20 09:49:00,45.2,25.6,30.22,SE,128,3.9,6.9,46,0.00,OVC,,0.00,329.0,WeatherDisplay:10.37,2013-04-20 14:49:00,
2013-04-20 09:52:00,45.0,26.5,30.22,NE,44,2.8,3.5,48,0.00,OVC,,0.00,352.0,WeatherDisplay:10.37,2013-04-20 14:52:00,
2013-04-20 09:53:00,45.1,26.6,30.22,East,93,4.0,8.0,48,0.00,OVC,,0.00,352.0,WeatherDisplay:10.37,2013-04-20 14:53:00,
2013-04-20 09:55:00,45.1,27.1,30.22,SE,135,2.4,4.6,49,0.00,OVC,,0.00,311.0,WeatherDisplay:10.37,2013-04-20 14:55:00,
2013-04-20 09:57:00,45.5,27.4,30.22,ENE,58,5.4,5.8,49,0.00,OVC,,0.00,334.0,WeatherDisplay:10.37,2013-04-20 14:57:00,
2013-04-20 09:58:00,45.4,27.3,30.22,NE,44,4.6,6.9,49,0.00,OVC,,0.00,362.0,WeatherDisplay:10.37,2013-04-20 14:58:00,
2013-04-20 10:00:00,45.3,27.7,30.22,North,9,2.1,3.5,50,0.00,OVC,,0.00,464.0,WeatherDisplay:10.37,2013-04-20 15:00:00,
2013-04-20 10:03:00,46.0,28.4,30.22,SE,124,2.1,3.5,50,0.00,OVC,,0.00,441.0,WeatherDisplay:10.37,2013-04-20 15:03:00,
2013-04-20 10:05:00,46.3,27.2,30.22,NE,44,2.8,4.6,47,0.00,OVC,,0.00,441.0,WeatherDisplay:10.37,2013-04-20 15:05:00,
2013-04-20 10:08:00,46.1,26.4,30.22,East,98,4.3,5.8,46,0.00,OVC,,0.00,489.0,WeatherDisplay:10.37,2013-04-20 15:08:00,
2013-04-20 10:09:00,46.1,27.5,30.22,NNE,27,2.8,4.6,48,0.00,OVC,,0.00,497.0,WeatherDisplay:10.37,2013-04-20 15:09:00,
2013-04-20 10:12:00,45.8,26.7,30.22,SE,132,4.7,6.9,47,0.00,OVC,,0.00,450.0,WeatherDisplay:10.37,2013-04-20 15:12:00,
2013-04-20 10:13:00,45.6,26.5,30.22,SE,144,2.9,8.1,47,0.00,OVC,,0.00,450.0,WeatherDisplay:10.37,2013-04-20 15:13:00,
2013-04-20 10:14:00,45.7,26.6,30.23,NE,48,1.7,3.5,47,0.00,OVC,,0.00,538.0,WeatherDisplay:10.37,2013-04-20 15:14:00,
2013-04-20 10:17:00,46.4,27.2,30.22,NE,34,2.1,3.5,47,0.00,OVC,,0.00,397.0,WeatherDisplay:10.37,2013-04-20 15:17:00,
2013-04-20 10:18:00,46.5,27.8,30.22,East,99,1.4,3.5,48,0.00,OVC,,0.00,397.0,WeatherDisplay:10.37,2013-04-20 15:18:00,
2013-04-20 10:19:00,46.7,28.0,30.23,ESE,115,2.2,7.0,48,0.00,OVC,,0.00,313.0,WeatherDisplay:10.37,2013-04-20 15:19:00,
2013-04-20 10:20:00,46.5,26.3,30.23,ESE,121,4.1,6.9,45,0.00,OVC,,0.00,283.0,WeatherDisplay:10.37,2013-04-20 15:20:00,
2013-04-20 10:22:00,46.5,27.8,30.22,SSW,198,1.6,3.5,48,0.00,OVC,,0.00,255.0,WeatherDisplay:10.37,2013-04-20 15:22:00,
2013-04-20 10:23:00,46.6,28.4,30.22,ESE,107,1.1,3.5,49,0.00,OVC,,0.00,255.0,WeatherDisplay:10.37,2013-04-20 15:23:00,
2013-04-20 10:24:00,46.7,27.5,30.22,ESE,109,0.9,2.3,47,0.00,OVC,,0.00,244.0,WeatherDisplay:10.37,2013-04-20 15:24:00,
2013-04-20 10:25:00,46.7,28.0,30.22,ENE,74,1.7,3.5,48,0.00,OVC,,0.00,230.0,WeatherDisplay:10.37,2013-04-20 15:25:00,
2013-04-20 10:27:00,46.2,26.5,30.23,East,92,3.5,8.1,46,0.00,OVC,,0.00,178.0,WeatherDisplay:10.37,2013-04-20 15:27:00,
2013-04-20 10:28:00,46.1,26.4,30.23,ESE,109,2.8,8.1,46,0.00,OVC,,0.00,178.0,WeatherDisplay:10.37,2013-04-20 15:28:00,
2013-04-20 10:29:00,45.9,26.8,30.23,ENE,72,2.7,4.0,47,0.00,OVC,,0.00,172.0,WeatherDisplay:10.37,2013-04-20 15:29:00,
2013-04-20 10:30:00,45.6,27.0,30.22,East,82,2.1,4.6,48,0.00,OVC,,0.00,172.0,WeatherDisplay:10.37,2013-04-20 15:30:00,
2013-04-20 10:33:00,45.7,27.6,30.23,SE,138,2.1,3.5,49,0.00,OVC,,0.00,179.0,WeatherDisplay:10.37,2013-04-20 15:33:00,
2013-04-20 10:34:00,45.8,27.7,30.23,SE,138,2.3,4.6,49,0.00,OVC,,0.00,183.0,WeatherDisplay:10.37,2013-04-20 15:34:00,
2013-04-20 10:35:00,46.0,27.4,30.23,SE,130,2.4,6.9,48,0.00,OVC,,0.00,192.0,WeatherDisplay:10.37,2013-04-20 15:35:00,
2013-04-20 10:38:00,45.9,27.8,30.23,SSE,148,0.8,4.6,49,0.00,OVC,,0.00,241.0,WeatherDisplay:10.37,2013-04-20 15:38:00,
2013-04-20 10:39:00,45.9,27.8,30.23,SSE,153,1.3,3.5,49,0.00,OVC,,0.00,267.0,WeatherDisplay:10.37,2013-04-20 15:39:00,
2013-04-20 10:40:00,46.1,27.5,30.23,ESE,112,2.3,3.5,48,0.00,OVC,,0.00,308.0,WeatherDisplay:10.37,2013-04-20 15:40:00,
2013-04-20 10:43:00,46.3,28.2,30.23,ESE,123,3.3,8.1,49,0.00,OVC,,0.00,380.0,WeatherDisplay:10.37,2013-04-20 15:43:00,
2013-04-20 10:44:00,46.3,28.2,30.23,East,100,2.9,4.6,49,0.00,OVC,,0.00,376.0,WeatherDisplay:10.37,2013-04-20 15:44:00,
2013-04-20 10:45:00,46.3,26.6,30.23,ESE,105,1.7,4.6,46,0.00,OVC,,0.00,369.0,WeatherDisplay:10.37,2013-04-20 15:45:00,
2013-04-20 10:46:00,46.5,27.8,30.23,SSE,163,2.6,4.6,48,0.00,OVC,,0.00,371.0,WeatherDisplay:10.37,2013-04-20 15:46:00,
2013-04-20 10:49:00,47.2,28.0,30.23,East,96,2.8,6.9,47,0.00,OVC,,0.00,408.0,WeatherDisplay:10.37,2013-04-20 15:49:00,
2013-04-20 10:50:00,47.6,28.9,30.23,East,98,1.6,2.3,48,0.00,OVC,,0.00,396.0,WeatherDisplay:10.37,2013-04-20 15:50:00,
2013-04-20 10:51:00,47.8,29.5,30.23,NE,49,3.4,3.5,49,0.00,OVC,,0.00,408.0,WeatherDisplay:10.37,2013-04-20 15:51:00,
2013-04-20 10:54:00,47.3,27.5,30.23,East,94,3.4,4.6,46,0.00,OVC,,0.00,418.0,WeatherDisplay:10.37,2013-04-20 15:54:00,
2013-04-20 10:55:00,47.2,26.9,30.23,SE,135,2.9,4.6,45,0.00,OVC,,0.00,359.0,WeatherDisplay:10.37,2013-04-20 15:55:00,
2013-04-20 10:56:00,47.3,27.5,30.23,ENE,70,3.2,4.6,46,0.00,OVC,,0.00,332.0,WeatherDisplay:10.37,2013-04-20 15:56:00,
2013-04-20 10:59:00,47.2,27.5,30.23,ESE,107,1.7,3.5,46,0.00,OVC,,0.00,292.0,WeatherDisplay:10.37,2013-04-20 15:59:00,
2013-04-20 11:00:00,47.1,26.8,30.23,East,92,4.3,6.0,45,0.00,OVC,,0.00,297.0,WeatherDisplay:10.37,2013-04-20 16:00:00,
2013-04-20 11:01:00,47.0,26.7,30.23,SE,144,2.0,9.2,45,0.00,OVC,,0.00,304.0,WeatherDisplay:10.37,2013-04-20 16:01:00,
2013-04-20 11:04:00,47.4,26.6,30.23,ESE,107,5.1,9.2,44,0.00,OVC,,0.00,350.0,WeatherDisplay:10.37,2013-04-20 16:04:00,
2013-04-20 11:05:00,47.2,26.4,30.23,SE,135,3.5,6.9,44,0.00,OVC,,0.00,390.0,WeatherDisplay:10.37,2013-04-20 16:05:00,
2013-04-20 11:06:00,47.1,26.3,30.23,East,88,4.4,5.8,44,0.00,OVC,,0.00,390.0,WeatherDisplay:10.37,2013-04-20 16:06:00,
2013-04-20 11:07:00,47.1,26.8,30.23,ESE,119,3.5,6.9,45,0.00,OVC,,0.00,413.0,WeatherDisplay:10.37,2013-04-20 16:07:00,
2013-04-20 11:09:00,47.4,28.7,30.23,ENE,62,2.6,4.0,48,0.00,OVC,,0.00,399.0,WeatherDisplay:10.37,2013-04-20 16:09:00,
2013-04-20 11:10:00,47.6,27.8,30.22,East,79,2.7,4.6,46,0.00,OVC,,0.00,387.0,WeatherDisplay:10.37,2013-04-20 16:10:00,
2013-04-20 11:11:00,47.6,27.8,30.22,ENE,64,2.2,4.6,46,0.00,OVC,,0.00,381.0,WeatherDisplay:10.37,2013-04-20 16:11:00,
2013-04-20 11:12:00,48.0,28.7,30.22,ESE,113,3.0,6.0,47,0.00,OVC,,0.00,371.0,WeatherDisplay:10.37,2013-04-20 16:12:00,
2013-04-20 11:14:00,47.8,27.5,30.22,NE,49,3.3,6.0,45,0.00,OVC,,0.00,367.0,WeatherDisplay:10.37,2013-04-20 16:14:00,
2013-04-20 11:15:00,47.8,28.0,30.22,NE,46,3.7,6.9,46,0.00,OVC,,0.00,369.0,WeatherDisplay:10.37,2013-04-20 16:15:00,
2013-04-20 11:16:00,47.8,28.0,30.22,ENE,66,3.9,8.1,46,0.00,OVC,,0.00,362.0,WeatherDisplay:10.37,2013-04-20 16:16:00,
2013-04-20 11:17:00,47.7,26.8,30.22,ENE,57,4.6,9.2,44,0.00,OVC,,0.00,343.0,WeatherDisplay:10.37,2013-04-20 16:17:00,
2013-04-20 11:19:00,47.5,27.2,30.22,ENE,68,5.0,9.0,45,0.00,OVC,,0.00,311.0,WeatherDisplay:10.37,2013-04-20 16:19:00,
2013-04-20 11:20:00,47.3,27.5,30.22,ESE,106,2.6,8.1,46,0.00,OVC,,0.00,315.0,WeatherDisplay:10.37,2013-04-20 16:20:00,
2013-04-20 11:21:00,47.3,27.5,30.22,ESE,120,2.5,3.5,46,0.00,OVC,,0.00,316.0,WeatherDisplay:10.37,2013-04-20 16:21:00,
2013-04-20 11:22:00,47.5,27.7,30.22,SSE,165,2.4,3.5,46,0.00,OVC,,0.00,346.0,WeatherDisplay:10.37,2013-04-20 16:22:00,
2013-04-20 11:26:00,47.9,28.1,30.22,WNW,284,2.7,6.9,46,0.00,OVC,,0.00,529.0,WeatherDisplay:10.37,2013-04-20 16:26:00,
2013-04-20 11:27:00,48.0,28.2,30.22,East,88,3.4,4.6,46,0.00,OVC,,0.00,480.0,WeatherDisplay:10.37,2013-04-20 16:27:00,
2013-04-20 11:31:00,48.3,28.5,30.22,NE,42,3.6,8.1,46,0.00,OVC,,0.00,554.0,WeatherDisplay:10.37,2013-04-20 16:31:00,
2013-04-20 11:32:00,48.4,28.0,30.23,ESE,111,4.7,8.1,45,0.00,OVC,,0.00,483.0,WeatherDisplay:10.37,2013-04-20 16:32:00,
2013-04-20 11:33:00,48.4,27.5,30.23,East,79,4.8,8.1,44,0.00,OVC,,0.00,432.0,WeatherDisplay:10.37,2013-04-20 16:33:00,
2013-04-20 11:36:00,48.3,27.9,30.22,ENE,76,2.2,3.5,45,0.00,OVC,,0.00,445.0,WeatherDisplay:10.37,2013-04-20 16:36:00,
2013-04-20 11:37:00,48.7,27.7,30.22,East,88,4.4,5.0,44,0.00,OVC,,0.00,459.0,WeatherDisplay:10.37,2013-04-20 16:37:00,
2013-04-20 11:38:00,48.8,27.8,30.22,East,98,4.3,5.8,44,0.00,OVC,,0.00,497.0,WeatherDisplay:10.37,2013-04-20 16:38:00,
2013-04-20 11:41:00,48.9,28.5,30.23,SE,133,3.7,8.1,45,0.00,OVC,,0.00,527.0,WeatherDisplay:10.37,2013-04-20 16:41:00,
2013-04-20 11:42:00,48.8,27.3,30.22,East,94,3.0,6.9,43,0.00,OVC,,0.00,527.0,WeatherDisplay:10.37,2013-04-20 16:42:00,
2013-04-20 11:43:00,48.8,27.3,30.22,SE,126,3.3,6.9,43,0.00,OVC,,0.00,527.0,WeatherDisplay:10.37,2013-04-20 16:43:00,
2013-04-20 11:47:00,48.9,29.0,30.22,NE,56,4.3,8.1,46,0.00,OVC,,0.00,450.0,WeatherDisplay:10.37,2013-04-20 16:47:00,
2013-04-20 11:48:00,49.0,28.0,30.22,SE,132,2.7,8.1,44,0.00,OVC,,0.00,371.0,WeatherDisplay:10.37,2013-04-20 16:48:00,
2013-04-20 11:52:00,49.4,28.9,30.23,ESE,116,3.1,5.8,45,0.00,OVC,,0.00,325.0,WeatherDisplay:10.37,2013-04-20 16:52:00,
2013-04-20 11:53:00,49.4,27.8,30.22,East,97,2.7,4.6,43,0.00,OVC,,0.00,330.0,WeatherDisplay:10.37,2013-04-20 16:53:00,
2013-04-20 11:57:00,49.0,28.0,30.22,ESE,113,3.1,4.6,44,0.00,OVC,,0.00,462.0,WeatherDisplay:10.37,2013-04-20 16:57:00,
2013-04-20 11:58:00,48.8,27.3,30.22,East,93,4.0,5.8,43,0.00,OVC,,0.00,506.0,WeatherDisplay:10.37,2013-04-20 16:58:00,
2013-04-20 11:59:00,48.7,27.7,30.22,ENE,71,4.7,6.9,44,0.00,OVC,,0.00,510.0,WeatherDisplay:10.37,2013-04-20 16:59:00,
2013-04-20 12:02:00,49.1,28.7,30.22,SE,128,1.9,4.6,45,0.00,OVC,,0.00,459.0,WeatherDisplay:10.37,2013-04-20 17:02:00,
2013-04-20 12:03:00,49.3,28.8,30.22,ESE,117,2.5,5.0,45,0.00,OVC,,0.00,422.0,WeatherDisplay:10.37,2013-04-20 17:03:00,
2013-04-20 12:04:00,49.5,27.9,30.22,ESE,105,2.5,5.8,43,0.00,OVC,,0.00,438.0,WeatherDisplay:10.37,2013-04-20 17:04:00,
2013-04-20 12:07:00,50.3,29.7,30.22,ESE,115,2.4,4.0,45,0.00,OVC,,0.00,508.0,WeatherDisplay:10.37,2013-04-20 17:07:00,
2013-04-20 12:08:00,50.3,28.6,30.22,SE,138,3.8,5.8,43,0.00,OVC,,0.00,548.0,WeatherDisplay:10.37,2013-04-20 17:08:00,
2013-04-20 12:09:00,50.3,28.1,30.22,SE,139,2.0,5.8,42,0.00,OVC,,0.00,647.0,WeatherDisplay:10.37,2013-04-20 17:09:00,
2013-04-20 12:12:00,51.0,29.8,30.22,ENE,58,1.4,3.5,44,0.00,OVC,,0.00,410.0,WeatherDisplay:10.37,2013-04-20 17:12:00,
2013-04-20 12:13:00,51.1,29.4,30.22,ENE,73,2.9,3.5,43,0.00,OVC,,0.00,378.0,WeatherDisplay:10.37,2013-04-20 17:13:00,
2013-04-20 12:14:00,51.0,29.3,30.21,SW,225,1.9,4.6,43,0.00,OVC,,0.00,464.0,WeatherDisplay:10.37,2013-04-20 17:14:00,
2013-04-20 12:17:00,51.0,30.9,30.21,ENE,66,3.7,4.6,46,0.00,OVC,,0.00,577.0,WeatherDisplay:10.37,2013-04-20 17:17:00,
2013-04-20 12:18:00,51.1,31.0,30.21,ESE,102,2.2,5.8,46,0.00,OVC,,0.00,663.0,WeatherDisplay:10.37,2013-04-20 17:18:00,
2013-04-20 12:19:00,51.0,29.3,30.21,East,92,3.0,5.0,43,0.00,OVC,,0.00,747.0,WeatherDisplay:10.37,2013-04-20 17:19:00,
2013-04-20 12:22:00,51.1,31.0,30.21,ENE,66,3.3,5.0,46,0.00,OVC,,0.00,923.0,WeatherDisplay:10.37,2013-04-20 17:22:00,
2013-04-20 12:23:00,51.2,29.4,30.21,NE,42,5.2,8.1,43,0.00,OVC,,0.00,860.0,WeatherDisplay:10.37,2013-04-20 17:23:00,
2013-04-20 12:24:00,51.2,29.4,30.21,ENE,69,5.1,7.0,43,0.00,OVC,,0.00,860.0,WeatherDisplay:10.37,2013-04-20 17:24:00,
2013-04-20 12:25:00,51.1,29.9,30.21,NNE,13,4.7,9.2,44,0.00,OVC,,0.00,886.0,WeatherDisplay:10.37,2013-04-20 17:25:00,
2013-04-20 12:28:00,51.9,30.1,30.20,East,96,3.5,6.9,43,0.00,OVC,,0.00,840.0,WeatherDisplay:10.37,2013-04-20 17:28:00,
2013-04-20 12:29:00,51.9,28.9,30.20,SE,127,5.4,8.1,41,0.00,OVC,,0.00,847.0,WeatherDisplay:10.37,2013-04-20 17:29:00,
2013-04-20 12:30:00,51.9,29.5,30.20,East,96,4.3,6.9,42,0.00,OVC,,0.00,842.0,WeatherDisplay:10.37,2013-04-20 17:30:00,
2013-04-20 12:33:00,52.2,30.9,30.20,ENE,76,2.9,4.6,44,0.00,OVC,,0.00,802.0,WeatherDisplay:10.37,2013-04-20 17:33:00,
2013-04-20 12:34:00,52.3,30.4,30.20,ENE,71,2.7,4.6,43,0.00,OVC,,0.00,837.0,WeatherDisplay:10.37,2013-04-20 17:34:00,
2013-04-20 12:35:00,52.3,29.3,30.20,ENE,74,4.3,8.1,41,0.00,OVC,,0.00,809.0,WeatherDisplay:10.37,2013-04-20 17:35:00,
2013-04-20 12:38:00,51.5,29.7,30.20,NE,54,4.2,6.9,43,0.00,OVC,,0.00,828.0,WeatherDisplay:10.37,2013-04-20 17:38:00,
2013-04-20 12:39:00,51.5,29.1,30.20,SE,131,3.4,5.8,42,0.00,OVC,,0.00,809.0,WeatherDisplay:10.37,2013-04-20 17:39:00,
2013-04-20 12:40:00,51.4,28.5,30.20,ESE,115,2.8,6.9,41,0.00,OVC,,0.00,759.0,WeatherDisplay:10.37,2013-04-20 17:40:00,
2013-04-20 12:43:00,51.8,29.4,30.20,ENE,70,4.1,9.2,42,0.00,OVC,,0.00,782.0,WeatherDisplay:10.37,2013-04-20 17:43:00,
2013-04-20 12:44:00,52.0,29.6,30.19,ESE,112,2.2,5.8,42,0.00,OVC,,0.00,763.0,WeatherDisplay:10.37,2013-04-20 17:44:00,
2013-04-20 12:46:00,52.3,30.4,30.19,ESE,112,4.3,4.6,43,0.00,OVC,,0.00,795.0,WeatherDisplay:10.37,2013-04-20 17:46:00,
2013-04-20 12:48:00,52.5,29.5,30.19,East,84,4.2,6.9,41,0.00,OVC,,0.00,879.0,WeatherDisplay:10.37,2013-04-20 17:48:00,
2013-04-20 12:49:00,52.3,28.7,30.19,ESE,116,4.5,6.9,40,0.00,OVC,,0.00,879.0,WeatherDisplay:10.37,2013-04-20 17:49:00,
2013-04-20 12:50:00,52.2,28.6,30.19,SE,144,4.4,6.9,40,0.00,OVC,,0.00,900.0,WeatherDisplay:10.37,2013-04-20 17:50:00,
2013-04-20 12:51:00,52.2,29.2,30.19,ESE,119,4.3,6.9,41,0.00,OVC,,0.00,831.0,WeatherDisplay:10.37,2013-04-20 17:51:00,
2013-04-20 12:54:00,52.2,29.2,30.19,SE,130,3.1,8.1,41,0.00,OVC,,0.00,865.0,WeatherDisplay:10.37,2013-04-20 17:54:00,
2013-04-20 12:55:00,52.6,30.1,30.19,SSE,147,2.4,8.1,42,0.00,OVC,,0.00,865.0,WeatherDisplay:10.37,2013-04-20 17:55:00,
2013-04-20 12:56:00,52.6,29.5,30.19,NE,53,5.4,7.0,41,0.00,OVC,,0.00,884.0,WeatherDisplay:10.37,2013-04-20 17:56:00,
2013-04-20 12:59:00,52.3,28.7,30.19,North,5,5.5,11.5,40,0.00,OVC,,0.00,905.0,WeatherDisplay:10.37,2013-04-20 17:59:00,
2013-04-20 13:00:00,52.2,29.2,30.19,SE,132,4.9,11.5,41,0.00,OVC,,0.00,905.0,WeatherDisplay:10.37,2013-04-20 18:00:00,
2013-04-20 13:01:00,51.9,28.9,30.19,NE,34,5.0,8.1,41,0.00,OVC,,0.00,905.0,WeatherDisplay:10.37,2013-04-20 18:01:00,
2013-04-20 13:04:00,52.6,29.5,30.19,East,101,3.8,6.9,41,0.00,OVC,,0.00,895.0,WeatherDisplay:10.37,2013-04-20 18:04:00,
2013-04-20 13:05:00,52.7,29.0,30.19,SE,126,2.9,6.9,40,0.00,OVC,,0.00,928.0,WeatherDisplay:10.37,2013-04-20 18:05:00,
2013-04-20 13:06:00,53.0,30.5,30.19,ESE,111,3.1,4.6,42,0.00,OVC,,0.00,837.0,WeatherDisplay:10.37,2013-04-20 18:06:00,
2013-04-20 13:09:00,52.7,29.6,30.19,ENE,57,4.6,8.1,41,0.00,OVC,,0.00,904.0,WeatherDisplay:10.37,2013-04-20 18:09:00,
2013-04-20 13:10:00,52.6,29.5,30.19,SE,124,3.5,6.9,41,0.00,OVC,,0.00,919.0,WeatherDisplay:10.37,2013-04-20 18:10:00,
2013-04-20 13:11:00,52.9,32.1,30.18,SE,125,0.5,6.9,45,0.00,OVC,,0.00,900.0,WeatherDisplay:10.37,2013-04-20 18:11:00,
2013-04-20 13:12:00,53.3,31.9,30.18,East,92,2.6,7.0,44,0.00,OVC,,0.00,932.0,WeatherDisplay:10.37,2013-04-20 18:12:00,
2013-04-20 13:14:00,53.9,30.7,30.18,SSW,209,3.1,5.8,41,0.00,OVC,,0.00,926.0,WeatherDisplay:10.37,2013-04-20 18:14:00,
2013-04-20 13:16:00,53.9,29.5,30.18,ESE,103,4.1,9.0,39,0.00,OVC,,0.00,937.0,WeatherDisplay:10.37,2013-04-20 18:16:00,
2013-04-20 13:17:00,53.8,29.4,30.18,SE,128,2.4,9.2,39,0.00,OVC,,0.00,905.0,WeatherDisplay:10.37,2013-04-20 18:17:00,
2013-04-20 13:20:00,54.2,29.8,30.18,ESE,121,4.2,8.1,39,0.00,OVC,,0.00,900.0,WeatherDisplay:10.37,2013-04-20 18:20:00,
2013-04-20 13:21:00,54.2,29.8,30.18,South,182,3.3,6.9,39,0.00,OVC,,0.00,907.0,WeatherDisplay:10.37,2013-04-20 18:21:00,
2013-04-20 13:22:00,54.6,30.7,30.18,ESE,102,6.5,11.5,40,0.00,OVC,,0.00,909.0,WeatherDisplay:10.37,2013-04-20 18:22:00,
2013-04-20 13:25:00,54.8,31.5,30.18,ENE,60,3.7,6.9,41,0.00,OVC,,0.00,907.0,WeatherDisplay:10.37,2013-04-20 18:25:00,
2013-04-20 13:26:00,54.5,30.6,30.18,ESE,115,2.2,6.9,40,0.00,OVC,,0.00,907.0,WeatherDisplay:10.37,2013-04-20 18:26:00,
2013-04-20 13:27:00,54.6,30.7,30.18,NNE,26,3.5,6.0,40,0.00,OVC,,0.00,914.0,WeatherDisplay:10.37,2013-04-20 18:27:00,
2013-04-20 13:30:00,54.0,30.2,30.17,NE,50,3.5,7.0,40,0.00,OVC,,0.00,919.0,WeatherDisplay:10.37,2013-04-20 18:30:00,
2013-04-20 13:31:00,53.7,31.1,30.17,NNE,31,5.2,8.1,42,0.00,OVC,,0.00,919.0,WeatherDisplay:10.37,2013-04-20 18:31:00,
2013-04-20 13:32:00,53.6,32.2,30.17,East,90,3.9,5.0,44,0.00,OVC,,0.00,911.0,WeatherDisplay:10.37,2013-04-20 18:32:00,
2013-04-20 13:35:00,54.1,30.9,30.17,ESE,116,3.0,4.6,41,0.00,OVC,,0.00,926.0,WeatherDisplay:10.37,2013-04-20 18:35:00,
2013-04-20 13:36:00,54.1,30.9,30.17,ESE,102,3.1,4.6,41,0.00,OVC,,0.00,919.0,WeatherDisplay:10.37,2013-04-20 18:36:00,
2013-04-20 13:37:00,54.2,31.6,30.17,NE,38,4.5,5.0,42,0.00,OVC,,0.00,902.0,WeatherDisplay:10.37,2013-04-20 18:37:00,
2013-04-20 13:40:00,54.8,30.9,30.17,SSE,155,6.1,9.2,40,0.00,OVC,,0.00,882.0,WeatherDisplay:10.37,2013-04-20 18:40:00,
2013-04-20 13:41:00,54.9,29.7,30.17,SSW,204,6.7,9.2,38,0.00,OVC,,0.00,882.0,WeatherDisplay:10.37,2013-04-20 18:41:00,
2013-04-20 13:42:00,55.0,31.1,30.17,East,95,3.9,9.2,40,0.00,OVC,,0.00,844.0,WeatherDisplay:10.37,2013-04-20 18:42:00,
2013-04-20 13:43:00,55.0,31.1,30.17,East,97,3.9,6.9,40,0.00,OVC,,0.00,844.0,WeatherDisplay:10.37,2013-04-20 18:43:00,
2013-04-20 13:45:00,54.4,29.3,30.17,ENE,62,4.0,6.9,38,0.00,OVC,,0.00,826.0,WeatherDisplay:10.37,2013-04-20 18:45:00,
2013-04-20 13:46:00,54.3,29.2,30.17,SE,132,3.1,6.9,38,0.00,OVC,,0.00,821.0,WeatherDisplay:10.37,2013-04-20 18:46:00,
2013-04-20 13:47:00,54.4,29.9,30.17,SE,128,4.9,9.2,39,0.00,OVC,,0.00,810.0,WeatherDisplay:10.37,2013-04-20 18:47:00,
2013-04-20 13:48:00,54.4,29.9,30.17,ENE,69,4.4,9.2,39,0.00,OVC,,0.00,810.0,WeatherDisplay:10.37,2013-04-20 18:48:00,
2013-04-20 13:51:00,54.3,31.1,30.17,East,96,2.3,5.8,41,0.00,OVC,,0.00,816.0,WeatherDisplay:10.37,2013-04-20 18:51:00,
2013-04-20 13:52:00,54.4,31.2,30.17,ESE,120,3.1,4.6,41,0.00,OVC,,0.00,826.0,WeatherDisplay:10.37,2013-04-20 18:52:00,
2013-04-20 13:53:00,54.5,31.9,30.17,NNE,30,2.2,4.6,42,0.00,OVC,,0.00,784.0,WeatherDisplay:10.37,2013-04-20 18:53:00,
2013-04-20 13:56:00,54.7,31.4,30.17,SSE,162,5.8,8.1,41,0.00,OVC,,0.00,826.0,WeatherDisplay:10.37,2013-04-20 18:56:00,
2013-04-20 13:57:00,54.8,30.9,30.17,ESE,115,4.8,9.2,40,0.00,OVC,,0.00,823.0,WeatherDisplay:10.37,2013-04-20 18:57:00,
2013-04-20 13:58:00,54.7,30.8,30.17,SE,144,3.3,6.9,40,0.00,OVC,,0.00,803.0,WeatherDisplay:10.37,2013-04-20 18:58:00,
2013-04-20 14:01:00,55.2,31.9,30.17,SE,134,2.3,3.5,41,0.00,OVC,,0.00,784.0,WeatherDisplay:10.37,2013-04-20 19:01:00,
2013-04-20 14:02:00,55.4,31.5,30.17,ESE,103,2.6,4.6,40,0.00,OVC,,0.00,816.0,WeatherDisplay:10.37,2013-04-20 19:02:00,
2013-04-20 14:03:00,55.6,31.0,30.17,SE,134,2.8,4.6,39,0.00,OVC,,0.00,849.0,WeatherDisplay:10.37,2013-04-20 19:03:00,
2013-04-20 14:06:00,56.5,31.8,30.17,NE,48,2.8,6.9,39,0.00,OVC,,0.00,853.0,WeatherDisplay:10.37,2013-04-20 19:06:00,
2013-04-20 14:07:00,56.4,31.7,30.17,SSE,151,1.7,5.0,39,0.00,OVC,,0.00,853.0,WeatherDisplay:10.37,2013-04-20 19:07:00,
2013-04-20 14:08:00,56.5,31.8,30.17,ENE,63,4.1,5.8,39,0.00,OVC,,0.00,853.0,WeatherDisplay:10.37,2013-04-20 19:08:00,
2013-04-20 14:09:00,56.5,30.5,30.17,ESE,120,3.9,4.6,37,0.00,OVC,,0.00,853.0,WeatherDisplay:10.37,2013-04-20 19:09:00,
2013-04-20 14:11:00,55.9,30.0,30.17,SE,144,4.5,5.8,37,0.00,OVC,,0.00,867.0,WeatherDisplay:10.37,2013-04-20 19:11:00,
2013-04-20 14:12:00,55.8,30.5,30.17,SE,132,4.5,7.0,38,0.00,OVC,,0.00,867.0,WeatherDisplay:10.37,2013-04-20 19:12:00,
2013-04-20 14:14:00,55.8,31.2,30.17,SSE,159,2.4,3.5,39,0.00,OVC,,0.00,830.0,WeatherDisplay:10.37,2013-04-20 19:14:00,
2013-04-20 14:16:00,55.7,30.5,30.17,ESE,105,2.7,4.6,38,0.00,OVC,,0.00,886.0,WeatherDisplay:10.37,2013-04-20 19:16:00,
2013-04-20 14:17:00,55.7,30.5,30.17,ESE,107,3.6,4.6,38,0.00,OVC,,0.00,879.0,WeatherDisplay:10.37,2013-04-20 19:17:00,
2013-04-20 14:18:00,55.7,30.5,30.17,ESE,119,4.0,6.9,38,0.00,OVC,,0.00,879.0,WeatherDisplay:10.37,2013-04-20 19:18:00,
2013-04-20 14:19:00,55.4,30.2,30.17,SE,144,4.2,6.9,38,0.00,OVC,,0.00,889.0,WeatherDisplay:10.37,2013-04-20 19:19:00,
2013-04-20 14:22:00,55.7,30.5,30.16,ESE,109,5.0,7.0,38,0.00,OVC,,0.00,874.0,WeatherDisplay:10.37,2013-04-20 19:22:00,
2013-04-20 14:23:00,55.7,30.5,30.17,East,94,3.9,8.1,38,0.00,OVC,,0.00,889.0,WeatherDisplay:10.37,2013-04-20 19:23:00,
2013-04-20 14:24:00,55.7,29.1,30.16,East,100,4.1,4.6,36,0.00,OVC,,0.00,893.0,WeatherDisplay:10.37,2013-04-20 19:24:00,
2013-04-20 14:27:00,55.9,30.0,30.16,ESE,117,2.4,4.6,37,0.00,OVC,,0.00,867.0,WeatherDisplay:10.37,2013-04-20 19:27:00,
2013-04-20 14:28:00,56.3,31.6,30.16,SE,134,2.5,5.0,39,0.00,OVC,,0.00,856.0,WeatherDisplay:10.37,2013-04-20 19:28:00,
2013-04-20 14:29:00,56.5,31.2,30.16,ESE,113,3.5,4.6,38,0.00,OVC,,0.00,879.0,WeatherDisplay:10.37,2013-04-20 19:29:00,
2013-04-20 14:30:00,56.5,31.2,30.16,ESE,112,3.4,5.8,38,0.00,OVC,,0.00,874.0,WeatherDisplay:10.37,2013-04-20 19:30:00,
2013-04-20 14:32:00,56.6,32.5,30.16,ESE,123,3.8,6.9,40,0.00,OVC,,0.00,870.0,WeatherDisplay:10.37,2013-04-20 19:32:00,
2013-04-20 14:33:00,56.7,32.6,30.16,ESE,103,3.4,8.1,40,0.00,OVC,,0.00,842.0,WeatherDisplay:10.37,2013-04-20 19:33:00,
2013-04-20 14:34:00,56.6,31.9,30.16,South,171,3.6,6.9,39,0.00,OVC,,0.00,816.0,WeatherDisplay:10.37,2013-04-20 19:34:00,
2013-04-20 14:35:00,56.6,31.3,30.16,SE,138,3.6,6.9,38,0.00,OVC,,0.00,821.0,WeatherDisplay:10.37,2013-04-20 19:35:00,
2013-04-20 14:37:00,56.2,30.9,30.16,East,86,3.1,8.1,38,0.00,OVC,,0.00,749.0,WeatherDisplay:10.37,2013-04-20 19:37:00,
2013-04-20 14:38:00,56.2,30.9,30.16,ESE,105,3.7,4.6,38,0.00,OVC,,0.00,731.0,WeatherDisplay:10.37,2013-04-20 19:38:00,
2013-04-20 14:39:00,56.2,30.9,30.16,ESE,104,3.1,6.9,38,0.00,OVC,,0.00,754.0,WeatherDisplay:10.37,2013-04-20 19:39:00,
2013-04-20 14:40:00,56.0,32.0,30.16,ENE,65,4.8,6.9,40,0.00,OVC,,0.00,779.0,WeatherDisplay:10.37,2013-04-20 19:40:00,
2013-04-20 14:43:00,56.3,32.3,30.16,East,101,5.1,9.2,40,0.00,OVC,,0.00,745.0,WeatherDisplay:10.37,2013-04-20 19:43:00,
2013-04-20 14:44:00,56.3,31.0,30.16,East,96,4.5,10.4,38,0.00,OVC,,0.00,745.0,WeatherDisplay:10.37,2013-04-20 19:44:00,
2013-04-20 14:45:00,55.9,30.6,30.16,ENE,57,4.3,6.9,38,0.00,OVC,,0.00,752.0,WeatherDisplay:10.37,2013-04-20 19:45:00,
2013-04-20 14:46:00,55.7,30.5,30.15,ESE,115,3.8,8.1,38,0.00,OVC,,0.00,744.0,WeatherDisplay:10.37,2013-04-20 19:46:00,
2013-04-20 14:48:00,56.1,31.5,30.16,ESE,105,3.1,5.0,39,0.00,OVC,,0.00,751.0,WeatherDisplay:10.37,2013-04-20 19:48:00,
2013-04-20 14:49:00,56.1,30.8,30.16,SSE,153,3.7,5.0,38,0.00,OVC,,0.00,751.0,WeatherDisplay:10.37,2013-04-20 19:49:00,
2013-04-20 14:50:00,56.6,32.5,30.15,ESE,107,2.1,6.9,40,0.00,OVC,,0.00,763.0,WeatherDisplay:10.37,2013-04-20 19:50:00,
2013-04-20 14:51:00,56.8,33.9,30.15,ESE,107,1.6,3.5,42,0.00,OVC,,0.00,747.0,WeatherDisplay:10.37,2013-04-20 19:51:00,
2013-04-20 14:53:00,56.8,32.7,30.15,ENE,59,4.0,5.8,40,0.00,OVC,,0.00,744.0,WeatherDisplay:10.37,2013-04-20 19:53:00,
2013-04-20 14:54:00,56.8,32.7,30.15,ESE,108,4.0,6.9,40,0.00,OVC,,0.00,744.0,WeatherDisplay:10.37,2013-04-20 19:54:00,
2013-04-20 14:56:00,56.9,32.2,30.15,East,82,3.0,4.6,39,0.00,OVC,,0.00,759.0,WeatherDisplay:10.37,2013-04-20 19:56:00,
2013-04-20 14:59:00,56.8,32.1,30.15,ENE,77,3.7,6.9,39,0.00,OVC,,0.00,754.0,WeatherDisplay:10.37,2013-04-20 19:59:00,
2013-04-20 15:01:00,56.8,32.7,30.15,NNE,26,3.5,10.4,40,0.00,OVC,,0.00,745.0,WeatherDisplay:10.37,2013-04-20 20:01:00,
2013-04-20 15:04:00,56.9,31.5,30.15,SE,134,6.0,9.2,38,0.00,OVC,,0.00,603.0,WeatherDisplay:10.37,2013-04-20 20:04:00,
2013-04-20 15:05:00,56.8,31.4,30.15,ESE,121,4.7,9.2,38,0.00,OVC,,0.00,603.0,WeatherDisplay:10.37,2013-04-20 20:05:00,
2013-04-20 15:06:00,56.7,31.4,30.15,SSE,153,4.1,8.1,38,0.00,OVC,,0.00,809.0,WeatherDisplay:10.37,2013-04-20 20:06:00,
2013-04-20 15:09:00,56.9,30.9,30.15,SE,138,4.7,8.1,37,0.00,OVC,,0.00,789.0,WeatherDisplay:10.37,2013-04-20 20:09:00,
2013-04-20 15:10:00,56.9,31.5,30.15,SSE,150,6.0,8.1,38,0.00,OVC,,0.00,772.0,WeatherDisplay:10.37,2013-04-20 20:10:00,
2013-04-20 15:11:00,56.8,31.4,30.15,South,173,4.6,10.4,38,0.00,OVC,,0.00,759.0,WeatherDisplay:10.37,2013-04-20 20:11:00,
2013-04-20 15:14:00,57.5,34.0,30.15,ENE,63,1.9,3.5,41,0.00,OVC,,0.00,737.0,WeatherDisplay:10.37,2013-04-20 20:14:00,
2013-04-20 15:15:00,57.3,31.9,30.14,East,85,3.4,5.8,38,0.00,OVC,,0.00,726.0,WeatherDisplay:10.37,2013-04-20 20:15:00,
2013-04-20 15:16:00,56.9,32.2,30.14,NE,55,5.0,5.8,39,0.00,OVC,,0.00,717.0,WeatherDisplay:10.37,2013-04-20 20:16:00,
2013-04-20 15:17:00,56.9,32.8,30.14,SSE,155,2.6,6.9,40,0.00,OVC,,0.00,714.0,WeatherDisplay:10.37,2013-04-20 20:17:00,
2013-04-20 15:19:00,57.7,32.2,30.14,ESE,107,4.0,6.9,38,0.00,OVC,,0.00,728.0,WeatherDisplay:10.37,2013-04-20 20:19:00,
2013-04-20 15:20:00,57.6,32.2,30.14,SE,129,4.0,5.8,38,0.00,OVC,,0.00,763.0,WeatherDisplay:10.37,2013-04-20 20:20:00,
2013-04-20 15:21:00,57.5,32.1,30.14,ESE,106,4.4,8.1,38,0.00,OVC,,0.00,770.0,WeatherDisplay:10.37,2013-04-20 20:21:00,
2013-04-20 15:22:00,57.3,31.9,30.14,NE,44,5.1,8.1,38,0.00,OVC,,0.00,777.0,WeatherDisplay:10.37,2013-04-20 20:22:00,
2013-04-20 15:24:00,57.3,33.8,30.14,SE,126,3.2,6.0,41,0.00,OVC,,0.00,782.0,WeatherDisplay:10.37,2013-04-20 20:24:00,
2013-04-20 15:25:00,56.9,32.2,30.14,ENE,57,2.5,6.9,39,0.00,OVC,,0.00,744.0,WeatherDisplay:10.37,2013-04-20 20:25:00,
2013-04-20 15:26:00,56.8,32.7,30.14,East,94,3.3,4.6,40,0.00,OVC,,0.00,742.0,WeatherDisplay:10.37,2013-04-20 20:26:00,
2013-04-20 15:27:00,56.9,32.8,30.14,ESE,119,3.0,6.9,40,0.00,OVC,,0.00,751.0,WeatherDisplay:10.37,2013-04-20 20:27:00,
2013-04-20 15:29:00,57.7,35.3,30.14,ESE,109,2.5,6.0,43,0.00,OVC,,0.00,758.0,WeatherDisplay:10.37,2013-04-20 20:29:00,
2013-04-20 15:30:00,57.8,33.0,30.14,East,92,5.0,5.8,39,0.00,OVC,,0.00,740.0,WeatherDisplay:10.37,2013-04-20 20:30:00,
2013-04-20 15:31:00,57.7,33.5,30.14,ENE,78,3.9,8.1,40,0.00,OVC,,0.00,761.0,WeatherDisplay:10.37,2013-04-20 20:31:00,
2013-04-20 15:32:00,57.6,33.4,30.14,NE,39,6.0,9.2,40,0.00,OVC,,0.00,735.0,WeatherDisplay:10.37,2013-04-20 20:32:00,
2013-04-20 15:33:00,57.4,32.6,30.13,ENE,68,5.7,9.2,39,0.00,OVC,,0.00,733.0,WeatherDisplay:10.37,2013-04-20 20:33:00,
2013-04-20 15:35:00,57.2,33.7,30.13,NE,52,5.4,6.9,41,0.00,OVC,,0.00,728.0,WeatherDisplay:10.37,2013-04-20 20:35:00,
2013-04-20 15:36:00,57.0,32.3,30.14,SE,138,5.6,8.1,39,0.00,OVC,,0.00,712.0,WeatherDisplay:10.37,2013-04-20 20:36:00,
2013-04-20 15:37:00,56.9,32.2,30.13,ENE,67,4.7,10.4,39,0.00,OVC,,0.00,728.0,WeatherDisplay:10.37,2013-04-20 20:37:00,
2013-04-20 15:38:00,56.9,32.8,30.13,ESE,120,2.8,10.4,40,0.00,OVC,,0.00,722.0,WeatherDisplay:10.37,2013-04-20 20:38:00,
2013-04-20 15:40:00,57.3,32.5,30.13,ESE,114,4.4,9.2,39,0.00,OVC,,0.00,715.0,WeatherDisplay:10.37,2013-04-20 20:40:00,
2013-04-20 15:41:00,57.7,33.5,30.13,East,98,2.7,9.2,40,0.00,OVC,,0.00,682.0,WeatherDisplay:10.37,2013-04-20 20:41:00,
2013-04-20 15:42:00,57.9,34.9,30.13,NNE,18,1.7,5.8,42,0.00,OVC,,0.00,719.0,WeatherDisplay:10.37,2013-04-20 20:42:00,
2013-04-20 15:43:00,58.1,34.5,30.13,ENE,67,4.7,8.1,41,0.00,OVC,,0.00,724.0,WeatherDisplay:10.37,2013-04-20 20:43:00,
2013-04-20 15:45:00,57.6,32.8,30.13,ENE,67,3.0,5.8,39,0.00,OVC,,0.00,693.0,WeatherDisplay:10.37,2013-04-20 20:45:00,
2013-04-20 15:47:00,57.7,33.5,30.13,ESE,119,4.7,4.7,40,0.00,OVC,,0.00,714.0,WeatherDisplay:10.37,2013-04-20 20:47:00,
2013-04-20 15:48:00,57.8,33.0,30.13,SE,144,3.4,6.9,39,0.00,OVC,,0.00,714.0,WeatherDisplay:10.37,2013-04-20 20:48:00,
2013-04-20 15:51:00,58.2,33.3,30.13,ESE,108,4.6,7.0,39,0.00,OVC,,0.00,722.0,WeatherDisplay:10.37,2013-04-20 20:51:00,
2013-04-20 15:52:00,57.8,32.3,30.12,East,91,4.0,8.1,38,0.00,OVC,,0.00,717.0,WeatherDisplay:10.37,2013-04-20 20:52:00,
2013-04-20 15:53:00,57.8,32.3,30.12,ESE,104,4.4,8.1,38,0.00,OVC,,0.00,689.0,WeatherDisplay:10.37,2013-04-20 20:53:00,
2013-04-20 15:56:00,57.9,33.1,30.12,SSE,157,5.4,9.2,39,0.00,OVC,,0.00,671.0,WeatherDisplay:10.37,2013-04-20 20:56:00,
2013-04-20 15:57:00,57.8,34.2,30.12,SE,145,3.7,10.4,41,0.00,OVC,,0.00,643.0,WeatherDisplay:10.37,2013-04-20 20:57:00,
2013-04-20 15:58:00,57.9,34.3,30.12,SE,131,3.3,7.0,41,0.00,OVC,,0.00,657.0,WeatherDisplay:10.37,2013-04-20 20:58:00,
2013-04-20 15:59:00,58.1,33.2,30.12,East,101,6.9,10.4,39,0.00,OVC,,0.00,671.0,WeatherDisplay:10.37,2013-04-20 20:59:00,
2013-04-20 16:01:00,57.8,33.0,30.12,ESE,116,5.2,8.1,39,0.00,OVC,,0.00,686.0,WeatherDisplay:10.37,2013-04-20 21:01:00,
2013-04-20 16:03:00,57.6,32.8,30.12,East,92,3.5,6.9,39,0.00,OVC,,0.00,640.0,WeatherDisplay:10.37,2013-04-20 21:03:00,
2013-04-20 16:04:00,57.8,33.6,30.12,East,96,3.5,6.9,40,0.00,OVC,,0.00,643.0,WeatherDisplay:10.37,2013-04-20 21:04:00,
2013-04-20 16:06:00,57.8,33.0,30.12,ESE,116,6.1,6.9,39,0.00,OVC,,0.00,613.0,WeatherDisplay:10.37,2013-04-20 21:06:00,
2013-04-20 16:08:00,57.7,32.9,30.12,East,79,3.2,7.0,39,0.00,OVC,,0.00,647.0,WeatherDisplay:10.37,2013-04-20 21:08:00,
2013-04-20 16:09:00,58.1,33.2,30.12,SE,144,4.6,6.9,39,0.00,OVC,,0.00,642.0,WeatherDisplay:10.37,2013-04-20 21:09:00,
2013-04-20 16:11:00,58.3,33.4,30.12,SSE,148,7.3,11.5,39,0.00,OVC,,0.00,701.0,WeatherDisplay:10.37,2013-04-20 21:11:00,
2013-04-20 16:13:00,58.1,33.2,30.12,SSE,159,3.5,6.9,39,0.00,OVC,,0.00,721.0,WeatherDisplay:10.37,2013-04-20 21:13:00,
2013-04-20 16:15:00,58.1,33.9,30.12,SSE,167,2.9,5.8,40,0.00,OVC,,0.00,714.0,WeatherDisplay:10.37,2013-04-20 21:15:00,
2013-04-20 16:16:00,58.4,34.2,30.12,East,85,6.3,11.5,40,0.00,OVC,,0.00,657.0,WeatherDisplay:10.37,2013-04-20 21:16:00,
2013-04-20 16:18:00,58.4,34.8,30.12,SSE,148,4.8,12.0,41,0.00,OVC,,0.00,615.0,WeatherDisplay:10.37,2013-04-20 21:18:00,
2013-04-20 16:20:00,58.6,35.0,30.12,SE,132,4.5,6.9,41,0.00,OVC,,0.00,638.0,WeatherDisplay:10.37,2013-04-20 21:20:00,
2013-04-20 16:22:00,58.6,34.3,30.12,East,84,2.6,4.6,40,0.00,OVC,,0.00,552.0,WeatherDisplay:10.37,2013-04-20 21:22:00,
2013-04-20 16:23:00,58.5,34.2,30.12,ESE,111,4.6,5.8,40,0.00,OVC,,0.00,575.0,WeatherDisplay:10.37,2013-04-20 21:23:00,
2013-04-20 16:24:00,58.4,34.2,30.12,East,93,4.7,6.9,40,0.00,OVC,,0.00,575.0,WeatherDisplay:10.37,2013-04-20 21:24:00,
2013-04-20 16:25:00,58.1,34.5,30.12,East,94,3.2,8.1,41,0.00,OVC,,0.00,563.0,WeatherDisplay:10.37,2013-04-20 21:25:00,
2013-04-20 16:27:00,57.8,34.8,30.11,ESE,106,2.8,8.1,42,0.00,OVC,,0.00,578.0,WeatherDisplay:10.37,2013-04-20 21:27:00,
2013-04-20 16:28:00,58.0,35.0,30.11,NE,38,3.8,6.0,42,0.00,OVC,,0.00,575.0,WeatherDisplay:10.37,2013-04-20 21:28:00,
2013-04-20 16:29:00,58.0,35.0,30.11,ESE,109,4.6,8.1,42,0.00,OVC,,0.00,575.0,WeatherDisplay:10.37,2013-04-20 21:29:00,
2013-04-20 16:30:00,58.0,34.4,30.11,SSE,152,6.2,9.2,41,0.00,OVC,,0.00,555.0,WeatherDisplay:10.37,2013-04-20 21:30:00,
2013-04-20 16:32:00,58.1,34.5,30.11,SSE,162,4.3,8.1,41,0.00,OVC,,0.00,515.0,WeatherDisplay:10.37,2013-04-20 21:32:00,
2013-04-20 16:33:00,58.0,34.4,30.11,East,94,3.9,8.1,41,0.00,OVC,,0.00,499.0,WeatherDisplay:10.37,2013-04-20 21:33:00,
2013-04-20 16:34:00,58.0,35.0,30.11,NE,39,4.4,7.0,42,0.00,OVC,,0.00,499.0,WeatherDisplay:10.37,2013-04-20 21:34:00,
2013-04-20 16:35:00,58.0,35.6,30.11,East,93,3.4,7.0,43,0.00,OVC,,0.00,480.0,WeatherDisplay:10.37,2013-04-20 21:35:00,
2013-04-20 16:38:00,57.8,34.8,30.11,ESE,115,4.4,6.9,42,0.00,OVC,,0.00,473.0,WeatherDisplay:10.37,2013-04-20 21:38:00,
2013-04-20 16:39:00,57.6,34.7,30.11,East,99,4.6,9.0,42,0.00,OVC,,0.00,461.0,WeatherDisplay:10.37,2013-04-20 21:39:00,
2013-04-20 16:41:00,57.6,34.7,30.11,SE,137,2.7,5.8,42,0.00,OVC,,0.00,438.0,WeatherDisplay:10.37,2013-04-20 21:41:00,
2013-04-20 16:43:00,57.7,34.7,30.11,SSE,153,3.1,6.9,42,0.00,OVC,,0.00,418.0,WeatherDisplay:10.37,2013-04-20 21:43:00,
2013-04-20 16:44:00,57.8,34.8,30.11,ENE,68,6.4,11.5,42,0.00,OVC,,0.00,417.0,WeatherDisplay:10.37,2013-04-20 21:44:00,
2013-04-20 16:45:00,57.9,34.3,30.11,ESE,121,4.8,8.1,41,0.00,OVC,,0.00,408.0,WeatherDisplay:10.37,2013-04-20 21:45:00,
2013-04-20 16:46:00,57.8,34.8,30.11,South,173,3.6,8.1,42,0.00,OVC,,0.00,396.0,WeatherDisplay:10.37,2013-04-20 21:46:00,
2013-04-20 16:48:00,57.6,34.7,30.11,ENE,67,2.9,8.1,42,0.00,OVC,,0.00,388.0,WeatherDisplay:10.37,2013-04-20 21:48:00,
2013-04-20 16:49:00,57.7,35.3,30.11,SE,131,1.4,3.5,43,0.00,OVC,,0.00,380.0,WeatherDisplay:10.37,2013-04-20 21:49:00,
2013-04-20 16:50:00,57.8,34.8,30.11,SE,127,4.1,8.1,42,0.00,OVC,,0.00,373.0,WeatherDisplay:10.37,2013-04-20 21:50:00,
2013-04-20 16:51:00,57.7,34.7,30.11,SSE,163,3.3,8.1,42,0.00,OVC,,0.00,369.0,WeatherDisplay:10.37,2013-04-20 21:51:00,
2013-04-20 16:53:00,57.8,35.4,30.11,SSW,203,2.0,6.9,43,0.00,OVC,,0.00,364.0,WeatherDisplay:10.37,2013-04-20 21:53:00,
2013-04-20 16:54:00,57.9,35.5,30.11,East,98,2.6,5.0,43,0.00,OVC,,0.00,366.0,WeatherDisplay:10.37,2013-04-20 21:54:00,
2013-04-20 16:55:00,58.0,36.2,30.11,East,97,4.1,5.8,44,0.00,OVC,,0.00,359.0,WeatherDisplay:10.37,2013-04-20 21:55:00,
2013-04-20 16:56:00,57.9,34.9,30.11,SE,143,5.1,10.4,42,0.00,OVC,,0.00,355.0,WeatherDisplay:10.37,2013-04-20 21:56:00,
2013-04-20 16:58:00,57.8,34.8,30.11,SE,142,5.3,9.2,42,0.00,OVC,,0.00,348.0,WeatherDisplay:10.37,2013-04-20 21:58:00,
2013-04-20 16:59:00,57.8,34.8,30.11,East,101,2.6,9.2,42,0.00,OVC,,0.00,346.0,WeatherDisplay:10.37,2013-04-20 21:59:00,
2013-04-20 17:00:00,57.8,35.4,30.11,ESE,118,2.7,5.8,43,0.00,OVC,,0.00,339.0,WeatherDisplay:10.37,2013-04-20 22:00:00,
2013-04-20 17:01:00,57.8,34.8,30.11,East,80,3.4,6.0,42,0.00,OVC,,0.00,339.0,WeatherDisplay:10.37,2013-04-20 22:01:00,
2013-04-20 17:03:00,57.7,35.3,30.11,SSE,155,2.6,5.8,43,0.00,OVC,,0.00,339.0,WeatherDisplay:10.37,2013-04-20 22:03:00,
2013-04-20 17:04:00,57.7,35.3,30.11,East,80,1.2,5.8,43,0.00,OVC,,0.00,334.0,WeatherDisplay:10.37,2013-04-20 22:04:00,
2013-04-20 17:05:00,57.7,35.3,30.11,SSE,156,2.3,4.0,43,0.00,OVC,,0.00,334.0,WeatherDisplay:10.37,2013-04-20 22:05:00,
2013-04-20 17:06:00,57.7,34.7,30.11,East,97,5.1,9.2,42,0.00,OVC,,0.00,325.0,WeatherDisplay:10.37,2013-04-20 22:06:00,
2013-04-20 17:09:00,57.7,34.7,30.11,ESE,104,6.1,10.4,42,0.00,OVC,,0.00,299.0,WeatherDisplay:10.37,2013-04-20 22:09:00,
2013-04-20 17:10:00,57.5,34.6,30.11,SE,134,4.0,8.1,42,0.00,OVC,,0.00,294.0,WeatherDisplay:10.37,2013-04-20 22:10:00,
2013-04-20 17:11:00,57.5,35.2,30.11,East,92,2.4,4.6,43,0.00,OVC,,0.00,294.0,WeatherDisplay:10.37,2013-04-20 22:11:00,
2013-04-20 17:14:00,57.4,35.1,30.11,ESE,119,4.3,4.6,43,0.00,OVC,,0.00,258.0,WeatherDisplay:10.37,2013-04-20 22:14:00,
2013-04-20 17:15:00,57.3,35.0,30.11,ESE,104,3.0,5.8,43,0.00,OVC,,0.00,255.0,WeatherDisplay:10.37,2013-04-20 22:15:00,
2013-04-20 17:16:00,57.3,35.0,30.11,ESE,114,3.3,3.5,43,0.00,OVC,,0.00,250.0,WeatherDisplay:10.37,2013-04-20 22:16:00,
2013-04-20 17:19:00,57.4,35.6,30.11,SSE,164,2.9,4.6,44,0.00,OVC,,0.00,239.0,WeatherDisplay:10.37,2013-04-20 22:19:00,
2013-04-20 17:20:00,57.5,35.7,30.11,SE,130,2.7,5.8,44,0.00,OVC,,0.00,239.0,WeatherDisplay:10.37,2013-04-20 22:20:00,
2013-04-20 17:21:00,57.5,35.2,30.11,SE,134,3.7,7.0,43,0.00,OVC,,0.00,227.0,WeatherDisplay:10.37,2013-04-20 22:21:00,
2013-04-20 17:24:00,57.4,33.9,30.11,SSW,194,6.0,8.1,41,0.00,OVC,,0.00,221.0,WeatherDisplay:10.37,2013-04-20 22:24:00,
2013-04-20 17:25:00,57.4,33.9,30.11,ENE,72,4.3,8.1,41,0.00,OVC,,0.00,216.0,WeatherDisplay:10.37,2013-04-20 22:25:00,
2013-04-20 17:26:00,57.4,33.9,30.11,ESE,118,3.8,8.1,41,0.00,OVC,,0.00,216.0,WeatherDisplay:10.37,2013-04-20 22:26:00,
2013-04-20 17:27:00,57.3,34.4,30.11,SE,129,2.9,6.9,42,0.00,OVC,,0.00,213.0,WeatherDisplay:10.37,2013-04-20 22:27:00,
2013-04-20 17:29:00,57.3,34.9,30.11,SE,134,6.0,9.0,43,0.00,OVC,,0.00,207.0,WeatherDisplay:10.37,2013-04-20 22:29:00,
2013-04-20 17:30:00,57.1,34.8,30.11,ESE,122,3.1,9.2,43,0.00,OVC,,0.00,207.0,WeatherDisplay:10.37,2013-04-20 22:30:00,
2013-04-20 17:31:00,57.1,34.8,30.11,ESE,111,2.3,6.9,43,0.00,OVC,,0.00,207.0,WeatherDisplay:10.37,2013-04-20 22:31:00,
2013-04-20 17:32:00,57.2,34.9,30.11,ESE,123,3.8,5.8,43,0.00,OVC,,0.00,202.0,WeatherDisplay:10.37,2013-04-20 22:32:00,
2013-04-20 17:35:00,57.2,34.3,30.11,ESE,107,2.1,3.5,42,0.00,OVC,,0.00,197.0,WeatherDisplay:10.37,2013-04-20 22:35:00,
2013-04-20 17:36:00,57.3,35.0,30.11,East,99,1.8,3.5,43,0.00,OVC,,0.00,195.0,WeatherDisplay:10.37,2013-04-20 22:36:00,
2013-04-20 17:37:00,57.3,35.0,30.11,SSW,209,2.6,4.6,43,0.00,OVC,,0.00,195.0,WeatherDisplay:10.37,2013-04-20 22:37:00,
2013-04-20 17:38:00,57.3,35.6,30.11,East,96,2.1,3.5,44,0.00,OVC,,0.00,195.0,WeatherDisplay:10.37,2013-04-20 22:38:00,
2013-04-20 17:40:00,57.3,34.4,30.11,SSE,148,5.7,9.2,42,0.00,OVC,,0.00,192.0,WeatherDisplay:10.37,2013-04-20 22:40:00,
2013-04-20 17:41:00,57.3,34.4,30.11,ESE,108,4.2,8.1,42,0.00,CLR,,0.00,190.0,WeatherDisplay:10.37,2013-04-20 22:41:00,
2013-04-20 17:42:00,57.2,34.9,30.11,SE,130,4.0,8.0,43,0.00,CLR,,0.00,188.0,WeatherDisplay:10.37,2013-04-20 22:42:00,
2013-04-20 17:43:00,57.1,34.2,30.11,SE,130,5.2,8.1,42,0.00,CLR,,0.00,185.0,WeatherDisplay:10.37,2013-04-20 22:43:00,
2013-04-20 17:45:00,57.0,35.3,30.11,ESE,107,3.1,10.4,44,0.00,CLR,,0.00,179.0,WeatherDisplay:10.37,2013-04-20 22:45:00,
2013-04-20 17:46:00,57.0,34.7,30.11,SE,143,3.5,5.8,43,0.00,CLR,,0.00,179.0,WeatherDisplay:10.37,2013-04-20 22:46:00,
2013-04-20 17:47:00,56.9,34.6,30.11,East,96,3.1,5.8,43,0.00,CLR,,0.00,176.0,WeatherDisplay:10.37,2013-04-20 22:47:00,
2013-04-20 17:48:00,56.9,34.6,30.11,ESE,107,4.0,5.8,43,0.00,CLR,,0.00,172.0,WeatherDisplay:10.37,2013-04-20 22:48:00,
2013-04-20 17:50:00,56.8,34.5,30.11,SE,144,4.9,6.9,43,0.00,CLR,,0.00,165.0,WeatherDisplay:10.37,2013-04-20 22:50:00,
2013-04-20 17:51:00,56.8,34.5,30.11,SSE,153,6.0,9.2,43,0.00,CLR,,0.00,165.0,WeatherDisplay:10.37,2013-04-20 22:51:00,
2013-04-20 17:52:00,56.7,34.4,30.11,ESE,108,3.8,6.9,43,0.00,CLR,,0.00,162.0,WeatherDisplay:10.37,2013-04-20 22:52:00,
2013-04-20 17:53:00,56.7,34.4,30.11,East,86,3.7,9.2,43,0.00,CLR,,0.00,160.0,WeatherDisplay:10.37,2013-04-20 22:53:00,
2013-04-20 17:55:00,56.7,34.4,30.11,SE,144,4.0,8.0,43,0.00,CLR,,0.00,153.0,WeatherDisplay:10.37,2013-04-20 22:55:00,
2013-04-20 17:56:00,56.7,35.0,30.11,SSE,148,5.4,10.0,44,0.00,CLR,,0.00,153.0,WeatherDisplay:10.37,2013-04-20 22:56:00,
2013-04-20 17:57:00,56.7,34.4,30.11,East,97,3.0,10.4,43,0.00,CLR,,0.00,151.0,WeatherDisplay:10.37,2013-04-20 22:57:00,
2013-04-20 17:58:00,56.7,34.4,30.11,SE,126,1.6,4.6,43,0.00,CLR,,0.00,151.0,WeatherDisplay:10.37,2013-04-20 22:58:00,
2013-04-20 18:01:00,56.6,34.9,30.11,East,90,5.4,8.0,44,0.00,CLR,,0.00,146.0,WeatherDisplay:10.37,2013-04-20 23:01:00,
2013-04-20 18:02:00,56.6,34.9,30.11,SE,137,5.5,8.1,44,0.00,CLR,,0.00,146.0,WeatherDisplay:10.37,2013-04-20 23:02:00,
2013-04-20 18:03:00,56.6,34.9,30.11,East,92,3.9,9.2,44,0.00,CLR,,0.00,146.0,WeatherDisplay:10.37,2013-04-20 23:03:00,
2013-04-20 18:06:00,56.8,35.7,30.11,ESE,119,1.4,3.5,45,0.00,CLR,,0.00,139.0,WeatherDisplay:10.37,2013-04-20 23:06:00,
2013-04-20 18:07:00,56.8,36.8,30.11,East,96,1.9,8.0,47,0.00,CLR,,0.00,139.0,WeatherDisplay:10.37,2013-04-20 23:07:00,
2013-04-20 18:08:00,56.8,35.1,30.11,East,92,3.8,8.1,44,0.00,CLR,,0.00,137.0,WeatherDisplay:10.37,2013-04-20 23:08:00,
2013-04-20 18:11:00,56.8,35.7,30.11,East,90,3.3,5.0,45,0.00,CLR,,0.00,127.0,WeatherDisplay:10.37,2013-04-20 23:11:00,
2013-04-20 18:12:00,56.8,35.1,30.11,ESE,110,3.9,6.9,44,0.00,CLR,,0.00,127.0,WeatherDisplay:10.37,2013-04-20 23:12:00,
2013-04-20 18:13:00,56.8,35.1,30.11,SE,139,3.0,3.5,44,0.00,CLR,,0.00,123.0,WeatherDisplay:10.37,2013-04-20 23:13:00,
2013-04-20 18:17:00,56.7,35.0,30.11,SSE,147,4.5,10.4,44,0.00,CLR,,0.00,109.0,WeatherDisplay:10.37,2013-04-20 23:17:00,
2013-04-20 18:18:00,56.7,35.0,30.11,SE,144,2.7,5.8,44,0.00,CLR,,0.00,107.0,WeatherDisplay:10.37,2013-04-20 23:18:00,
2013-04-20 18:19:00,56.7,35.6,30.11,SE,136,2.5,3.5,45,0.00,CLR,,0.00,104.0,WeatherDisplay:10.37,2013-04-20 23:19:00,
2013-04-20 18:22:00,56.5,35.4,30.11,NE,36,2.0,4.6,45,0.00,CLR,,0.00,97.0,WeatherDisplay:10.37,2013-04-20 23:22:00,
2013-04-20 18:23:00,56.5,36.0,30.11,East,80,2.1,3.5,46,0.00,CLR,,0.00,95.0,WeatherDisplay:10.37,2013-04-20 23:23:00,
2013-04-20 18:24:00,56.5,36.0,30.11,East,80,0.2,2.3,46,0.00,CLR,,0.00,93.0,WeatherDisplay:10.37,2013-04-20 23:24:00,
2013-04-20 18:27:00,56.5,35.4,30.11,East,90,3.5,4.6,45,0.00,FEW,,0.00,90.0,WeatherDisplay:10.37,2013-04-20 23:27:00,
2013-04-20 18:28:00,56.4,35.3,30.11,ENE,74,2.5,4.6,45,0.00,FEW,,0.00,88.0,WeatherDisplay:10.37,2013-04-20 23:28:00,
2013-04-20 18:29:00,56.4,35.3,30.11,East,84,2.7,6.9,45,0.00,FEW,,0.00,88.0,WeatherDisplay:10.37,2013-04-20 23:29:00,
2013-04-20 18:32:00,56.3,35.2,30.11,NE,54,4.5,8.1,45,0.00,SCT,,0.00,84.0,WeatherDisplay:10.37,2013-04-20 23:32:00,
2013-04-20 18:33:00,56.2,35.1,30.11,East,88,4.8,8.1,45,0.00,SCT,,0.00,84.0,WeatherDisplay:10.37,2013-04-20 23:33:00,
2013-04-20 18:34:00,56.2,35.1,30.11,ENE,69,1.3,4.6,45,0.00,SCT,,0.00,83.0,WeatherDisplay:10.37,2013-04-20 23:34:00,
2013-04-20 18:38:00,56.3,36.3,30.11,ESE,115,4.0,7.0,47,0.00,SCT,,0.00,79.0,WeatherDisplay:10.37,2013-04-20 23:38:00,
2013-04-20 18:39:00,56.2,35.1,30.11,SE,134,3.3,6.9,45,0.00,SCT,,0.00,77.0,WeatherDisplay:10.37,2013-04-20 23:39:00,
2013-04-20 18:43:00,56.2,36.2,30.11,SSE,148,0.0,1.2,47,0.00,BKN,,0.00,74.0,WeatherDisplay:10.37,2013-04-20 23:43:00,
2013-04-20 18:44:00,56.2,35.7,30.11,ESE,109,2.1,2.3,46,0.00,BKN,,0.00,74.0,WeatherDisplay:10.37,2013-04-20 23:44:00,
2013-04-20 18:45:00,56.2,35.7,30.11,ENE,76,2.1,3.5,46,0.00,BKN,,0.00,72.0,WeatherDisplay:10.37,2013-04-20 23:45:00,
2013-04-20 18:48:00,56.3,36.3,30.11,East,100,3.4,5.8,47,0.00,BKN,,0.00,69.0,WeatherDisplay:10.37,2013-04-20 23:48:00,
2013-04-20 18:49:00,56.3,35.8,30.11,ESE,108,1.8,4.6,46,0.00,BKN,,0.00,69.0,WeatherDisplay:10.37,2013-04-20 23:49:00,
2013-04-20 18:50:00,56.2,35.7,30.11,SSE,163,3.0,4.6,46,0.00,BKN,,0.00,65.0,WeatherDisplay:10.37,2013-04-20 23:50:00,
2013-04-20 18:53:00,56.1,36.1,30.11,NE,54,1.7,2.3,47,0.00,BKN,,0.00,62.0,WeatherDisplay:10.37,2013-04-20 23:53:00,
2013-04-20 18:54:00,56.0,35.5,30.11,ESE,105,3.3,6.9,46,0.00,BKN,,0.00,62.0,WeatherDisplay:10.37,2013-04-20 23:54:00,
2013-04-20 18:55:00,56.0,35.5,30.11,ESE,120,4.0,5.8,46,0.00,BKN,,0.00,58.0,WeatherDisplay:10.37,2013-04-20 23:55:00,
2013-04-20 18:58:00,55.9,35.4,30.11,East,92,3.2,4.6,46,0.00,BKN,,0.00,53.0,WeatherDisplay:10.37,2013-04-20 23:58:00,
2013-04-20 18:59:00,55.9,35.4,30.11,East,92,2.7,4.6,46,0.00,BKN,,0.00,53.0,WeatherDisplay:10.37,2013-04-20 23:59:00,
2013-04-20 19:00:00,55.9,35.4,30.11,East,92,0.2,3.5,46,0.00,BKN,,0.00,53.0,WeatherDisplay:10.37,2013-04-21 00:00:00,
2013-04-20 19:04:00,55.9,34.8,30.11,SE,130,4.6,8.1,45,0.00,BKN,,0.00,47.0,WeatherDisplay:10.37,2013-04-21 00:04:00,
2013-04-20 19:05:00,55.9,34.8,30.11,ESE,108,4.6,8.1,45,0.00,BKN,,0.00,46.0,WeatherDisplay:10.37,2013-04-21 00:05:00,
2013-04-20 19:09:00,55.8,34.8,30.11,East,95,4.0,6.9,45,0.00,BKN,,0.00,40.0,WeatherDisplay:10.37,2013-04-21 00:09:00,
2013-04-20 19:10:00,55.7,35.2,30.11,ESE,105,2.8,6.9,46,0.00,BKN,,0.00,40.0,WeatherDisplay:10.37,2013-04-21 00:10:00,
2013-04-20 19:11:00,55.7,35.2,30.11,East,98,2.6,5.8,46,0.00,BKN,,0.00,39.0,WeatherDisplay:10.37,2013-04-21 00:11:00,
2013-04-20 19:14:00,55.7,35.2,30.11,ENE,65,3.5,7.0,46,0.00,BKN,,0.00,35.0,WeatherDisplay:10.37,2013-04-21 00:14:00,
2013-04-20 19:15:00,55.6,35.1,30.11,ESE,107,3.9,6.9,46,0.00,BKN,,0.00,35.0,WeatherDisplay:10.37,2013-04-21 00:15:00,
2013-04-20 19:16:00,55.6,35.1,30.11,SE,135,2.9,4.6,46,0.00,BKN,,0.00,33.0,WeatherDisplay:10.37,2013-04-21 00:16:00,
2013-04-20 19:19:00,55.5,35.0,30.12,ENE,77,2.1,3.5,46,0.00,BKN,,0.00,30.0,WeatherDisplay:10.37,2013-04-21 00:19:00,
2013-04-20 19:20:00,55.5,35.6,30.12,ENE,78,2.1,3.5,47,0.00,BKN,,0.00,30.0,WeatherDisplay:10.37,2013-04-21 00:20:00,
2013-04-20 19:21:00,55.5,35.6,30.11,East,86,2.0,3.5,47,0.00,BKN,,0.00,26.0,WeatherDisplay:10.37,2013-04-21 00:21:00,
2013-04-20 19:25:00,55.4,35.5,30.12,ESE,119,2.7,4.6,47,0.00,BKN,,0.00,23.0,WeatherDisplay:10.37,2013-04-21 00:25:00,
2013-04-20 19:26:00,55.3,35.4,30.12,ESE,115,0.9,3.5,47,0.00,BKN,,0.00,21.0,WeatherDisplay:10.37,2013-04-21 00:26:00,
2013-04-20 19:30:00,55.3,35.4,30.11,East,94,2.3,3.5,47,0.00,CLR,,0.00,16.0,WeatherDisplay:10.37,2013-04-21 00:30:00,
2013-04-20 19:31:00,55.2,34.8,30.12,East,84,2.7,5.8,46,0.00,CLR,,0.00,14.0,WeatherDisplay:10.37,2013-04-21 00:31:00,
2013-04-20 19:35:00,55.2,35.3,30.11,ESE,123,1.6,3.0,47,0.00,CLR,,0.00,12.0,WeatherDisplay:10.37,2013-04-21 00:35:00,
2013-04-20 19:36:00,55.2,35.3,30.12,East,90,1.0,3.5,47,0.00,CLR,,0.00,11.0,WeatherDisplay:10.37,2013-04-21 00:36:00,
2013-04-20 19:37:00,55.2,35.3,30.12,East,85,1.2,5.0,47,0.00,CLR,,0.00,11.0,WeatherDisplay:10.37,2013-04-21 00:37:00,
2013-04-20 19:40:00,55.1,35.2,30.12,ESE,117,1.4,3.5,47,0.00,CLR,,0.00,9.0,WeatherDisplay:10.37,2013-04-21 00:40:00,
2013-04-20 19:41:00,55.1,35.7,30.12,East,99,1.0,2.3,48,0.00,CLR,,0.00,9.0,WeatherDisplay:10.37,2013-04-21 00:41:00,
2013-04-20 19:42:00,55.1,35.7,30.12,ESE,103,3.0,5.8,48,0.00,CLR,,0.00,9.0,WeatherDisplay:10.37,2013-04-21 00:42:00,
2013-04-20 19:45:00,55.0,35.7,30.12,ESE,102,1.1,5.8,48,0.00,CLR,,0.00,7.0,WeatherDisplay:10.37,2013-04-21 00:45:00,
2013-04-20 19:46:00,55.0,35.7,30.12,ENE,68,1.3,3.5,48,0.00,CLR,,0.00,7.0,WeatherDisplay:10.37,2013-04-21 00:46:00,
2013-04-20 19:47:00,55.0,35.7,30.12,SE,130,2.9,4.6,48,0.00,CLR,,0.00,5.0,WeatherDisplay:10.37,2013-04-21 00:47:00,
2013-04-20 19:51:00,54.9,35.6,30.12,East,84,1.3,5.0,48,0.00,CLR,,0.00,5.0,WeatherDisplay:10.37,2013-04-21 00:51:00,
2013-04-20 19:52:00,54.9,35.6,30.12,ESE,109,1.2,4.6,48,0.00,CLR,,0.00,0.0,WeatherDisplay:10.37,2013-04-21 00:52:00,
2013-04-20 19:56:00,54.8,36.0,30.12,East,93,3.5,5.8,49,0.00,CLR,,0.00,0.0,WeatherDisplay:10.37,2013-04-21 00:56:00,
2013-04-20 19:57:00,54.7,35.4,30.12,East,96,3.5,4.6,48,0.00,CLR,,0.00,0.0,WeatherDisplay:10.37,2013-04-21 00:57:00,
2013-04-20 20:01:00,54.6,35.3,30.12,ESE,117,1.4,5.8,48,0.00,CLR,,0.00,0.0,WeatherDisplay:10.37,2013-04-21 01:01:00,
2013-04-20 20:02:00,54.6,35.3,30.12,East,101,1.7,2.3,48,0.00,CLR,,0.00,0.0,WeatherDisplay:10.37,2013-04-21 01:02:00,
2013-04-20 20:03:00,54.6,35.3,30.12,SE,126,1.4,3.5,48,0.00,CLR,,0.00,0.0,WeatherDisplay:10.37,2013-04-21 01:03:00,
2013-04-20 20:06:00,54.5,35.2,30.12,ENE,75,3.7,5.0,48,0.00,CLR,,0.00,0.0,WeatherDisplay:10.37,2013-04-21 01:06:00,
2013-04-20 20:07:00,54.5,35.2,30.12,NE,51,3.5,5.8,48,0.00,CLR,,0.00,0.0,WeatherDisplay:10.37,2013-04-21 01:07:00,
2013-04-20 20:08:00,54.5,35.2,30.12,East,94,2.0,5.8,48,0.00,CLR,,0.00,0.0,WeatherDisplay:10.37,2013-04-21 01:08:00,
2013-04-20 20:12:00,54.4,35.6,30.12,East,96,1.5,3.5,49,0.00,CLR,,0.00,0.0,WeatherDisplay:10.37,2013-04-21 01:12:00,
2013-04-20 20:13:00,54.4,35.1,30.12,East,101,2.4,3.5,48,0.00,CLR,,0.00,0.0,WeatherDisplay:10.37,2013-04-21 01:13:00,
2013-04-20 20:17:00,54.3,35.5,30.12,East,86,4.3,6.9,49,0.00,CLR,,0.00,0.0,WeatherDisplay:10.37,2013-04-21 01:17:00,
2013-04-20 20:18:00,54.3,35.5,30.12,ESE,112,2.0,3.5,49,0.00,CLR,,0.00,0.0,WeatherDisplay:10.37,2013-04-21 01:18:00,
2013-04-20 20:22:00,54.2,35.4,30.12,East,91,2.3,3.5,49,0.00,CLR,,0.00,0.0,WeatherDisplay:10.37,2013-04-21 01:22:00,
2013-04-20 20:23:00,54.2,35.4,30.12,East,83,2.1,3.5,49,0.00,CLR,,0.00,0.0,WeatherDisplay:10.37,2013-04-21 01:23:00,
2013-04-20 20:24:00,54.2,35.9,30.12,ESE,120,1.9,3.5,50,0.00,CLR,,0.00,0.0,WeatherDisplay:10.37,2013-04-21 01:24:00,
2013-04-20 20:27:00,54.1,35.9,30.12,ENE,68,2.6,5.8,50,0.00,CLR,,0.00,0.0,WeatherDisplay:10.37,2013-04-21 01:27:00,
2013-04-20 20:28:00,54.0,35.8,30.12,ENE,66,2.9,5.8,50,0.00,CLR,,0.00,0.0,WeatherDisplay:10.37,2013-04-21 01:28:00,
2013-04-20 20:30:00,53.9,35.7,30.12,NNE,24,2.1,4.6,50,0.00,CLR,,0.00,0.0,WeatherDisplay:10.37,2013-04-21 01:30:00,
2013-04-20 20:32:00,53.9,35.7,30.12,ENE,58,2.9,3.5,50,0.00,CLR,,0.00,0.0,WeatherDisplay:10.37,2013-04-21 01:32:00,
2013-04-20 20:33:00,53.9,35.7,30.12,NNE,33,2.9,6.9,50,0.00,CLR,,0.00,0.0,WeatherDisplay:10.37,2013-04-21 01:33:00,
2013-04-20 20:35:00,53.8,35.6,30.12,NE,41,2.0,4.6,50,0.00,CLR,,0.00,0.0,WeatherDisplay:10.37,2013-04-21 01:35:00,
2013-04-20 20:38:00,53.8,35.6,30.12,ESE,103,1.4,6.9,50,0.00,CLR,,0.00,0.0,WeatherDisplay:10.37,2013-04-21 01:38:00,
2013-04-20 20:39:00,53.7,35.5,30.12,NNE,22,0.9,2.3,50,0.00,CLR,,0.00,0.0,WeatherDisplay:10.37,2013-04-21 01:39:00,
2013-04-20 20:40:00,53.7,35.5,30.13,ESE,107,3.0,6.9,50,0.00,CLR,,0.00,0.0,WeatherDisplay:10.37,2013-04-21 01:40:00,
2013-04-20 20:43:00,53.7,35.0,30.13,SE,134,4.8,9.2,49,0.00,CLR,,0.00,0.0,WeatherDisplay:10.37,2013-04-21 01:43:00,
2013-04-20 20:44:00,53.7,35.0,30.13,SSE,151,2.4,5.8,49,0.00,CLR,,0.00,0.0,WeatherDisplay:10.37,2013-04-21 01:44:00,
2013-04-20 20:45:00,53.7,35.0,30.14,SSE,154,2.5,4.6,49,0.00,CLR,,0.00,0.0,WeatherDisplay:10.37,2013-04-21 01:45:00,
2013-04-20 20:48:00,53.6,34.9,30.14,ENE,78,4.1,8.1,49,0.00,CLR,,0.00,0.0,WeatherDisplay:10.37,2013-04-21 01:48:00,
2013-04-20 20:49:00,53.6,34.9,30.14,East,89,4.0,8.1,49,0.00,CLR,,0.00,0.0,WeatherDisplay:10.37,2013-04-21 01:49:00,
2013-04-20 20:51:00,53.6,34.9,30.14,ESE,111,3.7,5.8,49,0.00,CLR,,0.00,0.0,WeatherDisplay:10.37,2013-04-21 01:51:00,
2013-04-20 20:54:00,53.5,35.3,30.13,ESE,106,3.7,8.0,50,0.00,CLR,,0.00,0.0,WeatherDisplay:10.37,2013-04-21 01:54:00,
2013-04-20 20:56:00,53.5,35.3,30.13,ESE,109,2.6,4.6,50,0.00,CLR,,0.00,0.0,WeatherDisplay:10.37,2013-04-21 01:56:00,
2013-04-20 20:59:00,53.4,34.7,30.14,ESE,103,3.0,6.9,49,0.00,CLR,,0.00,0.0,WeatherDisplay:10.37,2013-04-21 01:59:00,
2013-04-20 21:00:00,53.4,34.7,30.14,NE,37,3.8,4.6,49,0.00,CLR,,0.00,0.0,WeatherDisplay:10.37,2013-04-21 02:00:00,
2013-04-20 21:01:00,53.3,35.1,30.14,SSE,156,1.4,3.5,50,0.00,CLR,,0.00,0.0,WeatherDisplay:10.37,2013-04-21 02:01:00,
2013-04-20 21:04:00,53.3,35.1,30.14,ESE,109,1.8,3.5,50,0.00,CLR,,0.00,0.0,WeatherDisplay:10.37,2013-04-21 02:04:00,
2013-04-20 21:05:00,53.2,35.5,30.14,NE,46,2.3,3.5,51,0.00,CLR,,0.00,0.0,WeatherDisplay:10.37,2013-04-21 02:05:00,
2013-04-20 21:07:00,53.2,35.5,30.14,East,86,3.0,6.0,51,0.00,CLR,,0.00,0.0,WeatherDisplay:10.37,2013-04-21 02:07:00,
2013-04-20 21:09:00,53.1,34.9,30.14,ENE,76,4.0,5.8,50,0.00,CLR,,0.00,0.0,WeatherDisplay:10.37,2013-04-21 02:09:00,
2013-04-20 21:10:00,53.1,34.9,30.14,ENE,61,3.9,6.9,50,0.00,CLR,,0.00,0.0,WeatherDisplay:10.37,2013-04-21 02:10:00,
2013-04-20 21:11:00,53.1,34.9,30.14,ESE,113,1.6,4.0,50,0.00,CLR,,0.00,0.0,WeatherDisplay:10.37,2013-04-21 02:11:00,
2013-04-20 21:12:00,53.0,34.8,30.14,NE,47,3.8,4.6,50,0.00,CLR,,0.00,0.0,WeatherDisplay:10.37,2013-04-21 02:12:00,
2013-04-20 21:14:00,53.0,35.3,30.14,SE,130,2.0,3.5,51,0.00,CLR,,0.00,0.0,WeatherDisplay:10.37,2013-04-21 02:14:00,
2013-04-20 21:15:00,53.0,35.3,30.14,SE,130,2.0,3.5,51,0.00,CLR,,0.00,0.0,WeatherDisplay:10.37,2013-04-21 02:15:00,
2013-04-20 21:16:00,53.0,35.3,30.14,East,97,2.9,5.0,51,0.00,CLR,,0.00,0.0,WeatherDisplay:10.37,2013-04-21 02:16:00,
2013-04-20 21:17:00,53.0,35.3,30.14,East,96,3.0,4.6,51,0.00,CLR,,0.00,0.0,WeatherDisplay:10.37,2013-04-21 02:17:00,
2013-04-20 21:19:00,52.9,35.2,30.14,ENE,62,1.8,8.1,51,0.00,CLR,,0.00,0.0,WeatherDisplay:10.37,2013-04-21 02:19:00,
2013-04-20 21:20:00,52.9,35.2,30.14,ENE,62,1.8,8.1,51,0.00,CLR,,0.00,0.0,WeatherDisplay:10.37,2013-04-21 02:20:00,
2013-04-20 21:22:00,52.9,35.2,30.14,ENE,63,1.6,10.4,51,0.00,CLR,,0.00,0.0,WeatherDisplay:10.37,2013-04-21 02:22:00,
2013-04-20 21:25:00,52.8,35.2,30.14,NE,36,2.8,8.1,51,0.00,CLR,,0.00,0.0,WeatherDisplay:10.37,2013-04-21 02:25:00,
2013-04-20 21:27:00,52.7,35.1,30.14,ESE,105,2.4,8.1,51,0.00,CLR,,0.00,0.0,WeatherDisplay:10.37,2013-04-21 02:27:00,
2013-04-20 21:30:00,52.7,35.1,30.14,ESE,104,2.5,6.9,51,0.00,CLR,,0.00,0.0,WeatherDisplay:10.37,2013-04-21 02:30:00,
2013-04-20 21:32:00,52.7,34.6,30.13,East,95,4.0,8.1,50,0.00,CLR,,0.00,0.0,WeatherDisplay:10.37,2013-04-21 02:32:00,
2013-04-20 21:33:00,52.6,35.0,30.13,NNW,344,3.2,6.9,51,0.00,CLR,,0.00,0.0,WeatherDisplay:10.37,2013-04-21 02:33:00,
2013-04-20 21:35:00,52.6,35.0,30.13,NNE,32,4.6,10.4,51,0.00,CLR,,0.00,0.0,WeatherDisplay:10.37,2013-04-21 02:35:00,
2013-04-20 21:38:00,52.5,34.4,30.13,ENE,68,5.1,9.2,50,0.00,CLR,,0.00,0.0,WeatherDisplay:10.37,2013-04-21 02:38:00,
2013-04-20 21:40:00,52.5,34.9,30.13,ESE,109,3.1,9.2,51,0.00,CLR,,0.00,0.0,WeatherDisplay:10.37,2013-04-21 02:40:00,
2013-04-20 21:41:00,52.5,34.9,30.13,ENE,60,2.5,9.2,51,0.00,CLR,,0.00,0.0,WeatherDisplay:10.37,2013-04-21 02:41:00,
2013-04-20 21:43:00,52.5,34.4,30.14,East,96,3.3,5.0,50,0.00,CLR,,0.00,0.0,WeatherDisplay:10.37,2013-04-21 02:43:00,
2013-04-20 21:45:00,52.4,34.3,30.14,East,83,3.1,3.5,50,0.00,CLR,,0.00,0.0,WeatherDisplay:10.37,2013-04-21 02:45:00,
2013-04-20 21:46:00,52.4,34.3,30.14,SSE,150,3.4,6.9,50,0.00,CLR,,0.00,0.0,WeatherDisplay:10.37,2013-04-21 02:46:00,
2013-04-20 21:48:00,52.4,34.3,30.14,SE,129,3.5,5.8,50,0.00,CLR,,0.00,0.0,WeatherDisplay:10.37,2013-04-21 02:48:00,
2013-04-20 21:50:00,52.4,34.3,30.14,ESE,108,2.4,5.8,50,0.00,CLR,,0.00,0.0,WeatherDisplay:10.37,2013-04-21 02:50:00,
2013-04-20 21:51:00,52.3,34.2,30.15,ESE,113,5.9,9.2,50,0.00,CLR,,0.00,0.0,WeatherDisplay:10.37,2013-04-21 02:51:00,
2013-04-20 21:53:00,52.3,34.2,30.14,SE,141,3.2,4.6,50,0.00,CLR,,0.00,0.0,WeatherDisplay:10.37,2013-04-21 02:53:00,
2013-04-20 21:54:00,52.3,34.2,30.14,East,95,4.3,8.1,50,0.00,CLR,,0.00,0.0,WeatherDisplay:10.37,2013-04-21 02:54:00,
2013-04-20 21:55:00,52.3,34.2,30.14,SSE,150,2.9,5.8,50,0.00,CLR,,0.00,0.0,WeatherDisplay:10.37,2013-04-21 02:55:00,
2013-04-20 21:56:00,52.3,34.2,30.14,ENE,70,1.9,4.6,50,0.00,CLR,,0.00,0.0,WeatherDisplay:10.37,2013-04-21 02:56:00,
2013-04-20 21:58:00,52.3,34.2,30.15,ESE,121,4.9,5.8,50,0.00,CLR,,0.00,0.0,WeatherDisplay:10.37,2013-04-21 02:58:00,
2013-04-20 21:59:00,52.3,33.7,30.15,ENE,69,5.1,10.4,49,0.00,CLR,,0.00,0.0,WeatherDisplay:10.37,2013-04-21 02:59:00,
2013-04-20 22:00:00,52.3,33.7,30.15,SSE,159,3.3,6.9,49,0.00,CLR,,0.00,0.0,WeatherDisplay:10.37,2013-04-21 03:00:00,
2013-04-20 22:01:00,52.3,34.2,30.15,ENE,76,4.9,7.0,50,0.00,CLR,,0.00,0.0,WeatherDisplay:10.37,2013-04-21 03:01:00,
2013-04-20 22:03:00,52.3,33.7,30.15,East,94,2.3,6.9,49,0.00,CLR,,0.00,0.0,WeatherDisplay:10.37,2013-04-21 03:03:00,
2013-04-20 22:04:00,52.2,34.1,30.15,NE,53,1.6,4.6,50,0.00,CLR,,0.00,0.0,WeatherDisplay:10.37,2013-04-21 03:04:00,
2013-04-20 22:06:00,52.2,34.1,30.15,ESE,111,3.0,5.0,50,0.00,CLR,,0.00,0.0,WeatherDisplay:10.37,2013-04-21 03:06:00,
2013-04-20 22:08:00,52.1,34.0,30.15,ENE,73,4.3,5.8,50,0.00,CLR,,0.00,0.0,WeatherDisplay:10.37,2013-04-21 03:08:00,
2013-04-20 22:09:00,52.1,34.0,30.15,East,98,2.8,5.8,50,0.00,CLR,,0.00,0.0,WeatherDisplay:10.37,2013-04-21 03:09:00,
2013-04-20 22:11:00,52.1,33.5,30.15,ESE,115,4.7,11.5,49,0.00,CLR,,0.00,0.0,WeatherDisplay:10.37,2013-04-21 03:11:00,
2013-04-20 22:12:00,52.1,33.5,30.15,ESE,113,3.1,4.6,49,0.00,CLR,,0.00,0.0,WeatherDisplay:10.37,2013-04-21 03:12:00,
2013-04-20 22:13:00,52.1,34.0,30.15,ESE,119,4.2,6.0,50,0.00,CLR,,0.00,0.0,WeatherDisplay:10.37,2013-04-21 03:13:00,
2013-04-20 22:14:00,52.1,33.5,30.15,East,82,4.5,9.2,49,0.00,CLR,,0.00,0.0,WeatherDisplay:10.37,2013-04-21 03:14:00,
2013-04-20 22:16:00,52.1,34.0,30.15,SE,132,1.7,4.6,50,0.00,CLR,,0.00,0.0,WeatherDisplay:10.37,2013-04-21 03:16:00,
2013-04-20 22:17:00,52.0,33.9,30.15,SE,125,4.5,8.1,50,0.00,CLR,,0.00,0.0,WeatherDisplay:10.37,2013-04-21 03:17:00,
2013-04-20 22:18:00,52.0,33.9,30.15,ESE,111,3.5,4.6,50,0.00,CLR,,0.00,0.0,WeatherDisplay:10.37,2013-04-21 03:18:00,
2013-04-20 22:19:00,52.0,33.9,30.15,NNW,337,2.3,4.6,50,0.00,CLR,,0.00,0.0,WeatherDisplay:10.37,2013-04-21 03:19:00,
2013-04-20 22:21:00,51.9,33.8,30.15,SE,127,1.3,3.5,50,0.00,CLR,,0.00,0.0,WeatherDisplay:10.37,2013-04-21 03:21:00,
2013-04-20 22:22:00,51.9,33.8,30.15,ENE,75,3.1,9.0,50,0.00,CLR,,0.00,0.0,WeatherDisplay:10.37,2013-04-21 03:22:00,
2013-04-20 22:24:00,51.9,33.8,30.15,East,92,3.1,8.1,50,0.00,CLR,,0.00,0.0,WeatherDisplay:10.37,2013-04-21 03:24:00,
2013-04-20 22:26:00,51.8,33.7,30.15,ESE,111,4.0,6.9,50,0.00,CLR,,0.00,0.0,WeatherDisplay:10.37,2013-04-21 03:26:00,
2013-04-20 22:27:00,51.8,33.7,30.15,ENE,61,4.0,8.1,50,0.00,CLR,,0.00,0.0,WeatherDisplay:10.37,2013-04-21 03:27:00,
2013-04-20 22:28:00,51.8,33.7,30.15,East,98,3.6,8.1,50,0.00,CLR,,0.00,0.0,WeatherDisplay:10.37,2013-04-21 03:28:00,
2013-04-20 22:29:00,51.8,33.7,30.15,SSE,148,3.6,8.1,50,0.00,CLR,,0.00,0.0,WeatherDisplay:10.37,2013-04-21 03:29:00,
2013-04-20 22:30:00,51.8,33.7,30.15,ESE,104,2.0,4.6,50,0.00,CLR,,0.00,0.0,WeatherDisplay:10.37,2013-04-21 03:30:00,
2013-04-20 22:31:00,51.8,33.7,30.15,East,92,3.9,6.9,50,0.00,CLR,,0.00,0.0,WeatherDisplay:10.37,2013-04-21 03:31:00,
2013-04-20 22:33:00,51.8,33.7,30.15,ESE,121,2.7,8.1,50,0.00,CLR,,0.00,0.0,WeatherDisplay:10.37,2013-04-21 03:33:00,
2013-04-20 22:34:00,51.8,33.7,30.15,East,95,2.8,8.1,50,0.00,CLR,,0.00,0.0,WeatherDisplay:10.37,2013-04-21 03:34:00,
2013-04-20 22:35:00,51.8,33.7,30.15,ESE,115,3.5,6.9,50,0.00,CLR,,0.00,0.0,WeatherDisplay:10.37,2013-04-21 03:35:00,
2013-04-20 22:37:00,51.8,33.7,30.15,SW,225,2.4,4.6,50,0.00,CLR,,0.00,0.0,WeatherDisplay:10.37,2013-04-21 03:37:00,
2013-04-20 22:38:00,51.8,33.7,30.15,SE,126,1.9,3.5,50,0.00,CLR,,0.00,0.0,WeatherDisplay:10.37,2013-04-21 03:38:00,
2013-04-20 22:39:00,51.8,33.7,30.15,ESE,105,2.8,4.6,50,0.00,CLR,,0.00,0.0,WeatherDisplay:10.37,2013-04-21 03:39:00,
2013-04-20 22:40:00,51.7,33.6,30.15,ENE,61,3.1,5.8,50,0.00,CLR,,0.00,0.0,WeatherDisplay:10.37,2013-04-21 03:40:00,
2013-04-20 22:42:00,51.7,33.6,30.15,ESE,108,3.3,6.0,50,0.00,CLR,,0.00,0.0,WeatherDisplay:10.37,2013-04-21 03:42:00,
2013-04-20 22:43:00,51.7,33.6,30.15,ENE,61,2.8,8.1,50,0.00,CLR,,0.00,0.0,WeatherDisplay:10.37,2013-04-21 03:43:00,
2013-04-20 22:44:00,51.7,33.6,30.15,SSE,159,3.4,7.0,50,0.00,CLR,,0.00,0.0,WeatherDisplay:10.37,2013-04-21 03:44:00,
2013-04-20 22:45:00,51.7,33.6,30.14,SE,128,4.6,6.9,50,0.00,CLR,,0.00,0.0,WeatherDisplay:10.37,2013-04-21 03:45:00,
2013-04-20 22:47:00,51.8,33.7,30.15,East,88,3.4,9.2,50,0.00,CLR,,0.00,0.0,WeatherDisplay:10.37,2013-04-21 03:47:00,
2013-04-20 22:48:00,51.8,33.7,30.14,ESE,102,4.3,8.1,50,0.00,CLR,,0.00,0.0,WeatherDisplay:10.37,2013-04-21 03:48:00,
2013-04-20 22:49:00,51.8,33.7,30.14,SSE,159,3.9,8.1,50,0.00,CLR,,0.00,0.0,WeatherDisplay:10.37,2013-04-21 03:49:00,
2013-04-20 22:50:00,51.8,33.7,30.14,ESE,111,2.7,4.6,50,0.00,CLR,,0.00,0.0,WeatherDisplay:10.37,2013-04-21 03:50:00,
2013-04-20 22:53:00,51.8,33.7,30.14,South,169,1.7,3.5,50,0.00,CLR,,0.00,0.0,WeatherDisplay:10.37,2013-04-21 03:53:00,
2013-04-20 22:54:00,51.7,34.1,30.15,ESE,102,1.7,5.8,51,0.00,CLR,,0.00,0.0,WeatherDisplay:10.37,2013-04-21 03:54:00,
2013-04-20 22:55:00,51.7,34.1,30.15,ESE,107,3.1,4.0,51,0.00,CLR,,0.00,0.0,WeatherDisplay:10.37,2013-04-21 03:55:00,
2013-04-20 22:58:00,51.7,33.6,30.15,SE,134,3.1,8.1,50,0.00,CLR,,0.00,0.0,WeatherDisplay:10.37,2013-04-21 03:58:00,
2013-04-20 22:59:00,51.6,33.6,30.15,ESE,120,1.6,8.1,50,0.00,CLR,,0.00,0.0,WeatherDisplay:10.37,2013-04-21 03:59:00,
2013-04-20 23:00:00,51.7,34.1,30.15,ESE,106,1.7,8.1,51,0.00,CLR,,0.00,0.0,WeatherDisplay:10.37,2013-04-21 04:00:00,
2013-04-20 23:01:00,51.6,34.0,30.15,East,80,2.7,4.6,51,0.00,CLR,,0.00,0.0,WeatherDisplay:10.37,2013-04-21 04:01:00,
2013-04-20 23:06:00,51.5,34.0,30.15,ESE,117,4.0,8.1,51,0.00,CLR,,0.00,0.0,WeatherDisplay:10.37,2013-04-21 04:06:00,
2013-04-20 23:07:00,51.5,34.0,30.15,SE,134,2.3,4.6,51,0.00,CLR,,0.00,0.0,WeatherDisplay:10.37,2013-04-21 04:07:00,
2013-04-20 23:11:00,51.4,33.9,30.14,ENE,68,6.3,10.4,51,0.00,CLR,,0.00,0.0,WeatherDisplay:10.37,2013-04-21 04:11:00,
2013-04-20 23:12:00,51.4,33.9,30.14,SE,141,6.4,10.4,51,0.00,CLR,,0.00,0.0,WeatherDisplay:10.37,2013-04-21 04:12:00,
2013-04-20 23:16:00,51.5,34.0,30.14,East,90,2.9,4.6,51,0.00,CLR,,0.00,0.0,WeatherDisplay:10.37,2013-04-21 04:16:00,
2013-04-20 23:17:00,51.5,34.0,30.14,East,90,2.8,4.6,51,0.00,CLR,,0.00,0.0,WeatherDisplay:10.37,2013-04-21 04:17:00,
2013-04-20 23:21:00,51.4,33.9,30.14,SE,130,1.9,3.5,51,0.00,CLR,,0.00,0.0,WeatherDisplay:10.37,2013-04-21 04:21:00,
2013-04-20 23:22:00,51.4,33.9,30.14,ESE,108,1.6,3.5,51,0.00,CLR,,0.00,0.0,WeatherDisplay:10.37,2013-04-21 04:22:00,
2013-04-20 23:27:00,51.3,34.3,30.14,SE,134,3.1,5.8,52,0.00,CLR,,0.00,0.0,WeatherDisplay:10.37,2013-04-21 04:27:00,
2013-04-20 23:28:00,51.3,34.3,30.14,ESE,105,1.9,5.0,52,0.00,CLR,,0.00,0.0,WeatherDisplay:10.37,2013-04-21 04:28:00,
2013-04-20 23:32:00,51.3,34.3,30.14,SE,133,2.7,5.8,52,0.00,CLR,,0.00,0.0,WeatherDisplay:10.37,2013-04-21 04:32:00,
2013-04-20 23:33:00,51.3,34.3,30.14,SE,132,3.4,5.8,52,0.00,CLR,,0.00,0.0,WeatherDisplay:10.37,2013-04-21 04:33:00,
2013-04-20 23:37:00,51.3,34.3,30.14,East,90,3.5,4.6,52,0.00,CLR,,0.00,0.0,WeatherDisplay:10.37,2013-04-21 04:37:00,
2013-04-20 23:38:00,51.3,34.3,30.14,ESE,106,3.1,4.6,52,0.00,CLR,,0.00,0.0,WeatherDisplay:10.37,2013-04-21 04:38:00,
2013-04-20 23:42:00,51.2,34.2,30.14,ESE,102,3.0,8.1,52,0.00,CLR,,0.00,0.0,WeatherDisplay:10.37,2013-04-21 04:42:00,
2013-04-20 23:43:00,51.2,34.2,30.14,SSE,163,4.8,5.8,52,0.00,CLR,,0.00,0.0,WeatherDisplay:10.37,2013-04-21 04:43:00,
2013-04-20 23:47:00,51.3,34.3,30.14,SSE,157,2.7,8.1,52,0.00,CLR,,0.00,0.0,WeatherDisplay:10.37,2013-04-21 04:47:00,
2013-04-20 23:48:00,51.3,34.3,30.14,SSE,160,3.2,3.5,52,0.00,CLR,,0.00,0.0,WeatherDisplay:10.37,2013-04-21 04:48:00,
2013-04-20 23:50:00,51.3,34.3,30.14,East,100,1.8,3.5,52,0.00,CLR,,0.00,0.0,WeatherDisplay:10.37,2013-04-21 04:50:00,
2013-04-20 23:52:00,51.2,34.6,30.14,SSE,167,3.1,6.0,53,0.00,CLR,,0.00,0.0,WeatherDisplay:10.37,2013-04-21 04:52:00,
2013-04-20 23:53:00,51.2,34.6,30.14,ENE,76,4.6,8.1,53,0.00,CLR,,0.00,0.0,WeatherDisplay:10.37,2013-04-21 04:53:00,
2013-04-20 23:54:00,51.2,34.6,30.14,ESE,120,5.0,8.1,53,0.00,CLR,,0.00,0.0,WeatherDisplay:10.37,2013-04-21 04:54:00,
2013-04-20 23:55:00,51.2,34.6,30.14,East,92,3.5,9.2,53,0.00,CLR,,0.00,0.0,WeatherDisplay:10.37,2013-04-21 04:55:00,
2013-04-20 23:58:00,51.2,34.6,30.14,East,101,2.9,5.0,53,0.00,CLR,,0.00,0.0,WeatherDisplay:10.37,2013-04-21 04:58:00,
2013-04-20 23:59:00,51.2,34.6,30.14,ESE,104,2.3,4.6,53,0.00,CLR,,0.00,0.0,WeatherDisplay:10.37,2013-04-21 04:59:00,